| time (UTC) | temp F | wind direction | speed MPH | gust MPH | rain 1hr in | rain 24hr in | rain mn in | humidity % | barometer mb |
| 20260903183615 | 67 | 162 | 3.0 | 9.0 | 0.00 | 0.00 | 0.00 | 51 | 1010.4 |
| 20260903183553 | 67 | 154 | 4.0 | 9.0 | 0.00 | 0.00 | 0.00 | 50 | 1010.4 |
| 20260903183533 | 67 | 205 | 3.0 | 11.0 | 0.00 | 0.00 | 0.00 | 49 | 1010.4 |
| 20260903183230 | 67 | 245 | 3.0 | 11.0 | 0.00 | 0.00 | 0.00 | 49 | 1010.4 |
| 20260903183154 | 67 | 278 | 3.0 | 11.0 | 0.00 | 0.00 | 0.00 | 50 | 1010.5 |
| 20260903183132 | 67 | 211 | 5.0 | 11.0 | 0.00 | 0.00 | 0.00 | 50 | 1010.5 |
| 20260903183111 | 67 | 194 | 5.0 | 11.0 | 0.00 | 0.00 | 0.00 | 49 | 1010.5 |
| 20260903183049 | 67 | 180 | 3.0 | 11.0 | 0.00 | 0.00 | 0.00 | 48 | 1010.4 |
| 20260903183028 | 67 | 150 | 4.0 | 11.0 | 0.00 | 0.00 | 0.00 | 49 | 1010.4 |
| 20260903182953 | 67 | 158 | 5.0 | 11.0 | 0.00 | 0.00 | 0.00 | 50 | 1010.4 |
| 20260903182432 | 67 | 213 | 4.0 | 9.0 | 0.00 | 0.00 | 0.00 | 50 | 1010.4 |
| 20260903182410 | 67 | 176 | 3.0 | 9.0 | 0.00 | 0.00 | 0.00 | 49 | 1010.4 |
| 20260903182335 | 67 | 164 | 4.0 | 9.0 | 0.00 | 0.00 | 0.00 | 50 | 1010.5 |
| 20260903182045 | 67 | 159 | 5.0 | 9.0 | 0.00 | 0.00 | 0.00 | 50 | 1010.5 |
| 20260903182022 | 67 | 163 | 5.0 | 9.0 | 0.00 | 0.00 | 0.00 | 50 | 1010.5 |
| 20260903181716 | 67 | 146 | 2.0 | 9.0 | 0.00 | 0.00 | 0.00 | 50 | 1010.5 |
| 20260903181653 | 67 | 149 | 2.0 | 9.0 | 0.00 | 0.00 | 0.00 | 50 | 1010.5 |
| 20260903181632 | 67 | 165 | 3.0 | 9.0 | 0.00 | 0.00 | 0.00 | 51 | 1010.5 |
| 20260903181611 | 67 | 153 | 4.0 | 9.0 | 0.00 | 0.00 | 0.00 | 51 | 1010.5 |
| 20260903181551 | 67 | 174 | 4.0 | 9.0 | 0.00 | 0.00 | 0.00 | 49 | 1010.5 |
| 20260903181513 | 67 | 219 | 2.0 | 9.0 | 0.00 | 0.00 | 0.00 | 50 | 1010.5 |
| 20260903181454 | 67 | 128 | 2.0 | 9.0 | 0.00 | 0.00 | 0.00 | 50 | 1010.4 |
| 20260903181434 | 67 | 226 | 2.0 | 9.0 | 0.00 | 0.00 | 0.00 | 51 | 1010.5 |
| 20260903181411 | 67 | 259 | 2.0 | 9.0 | 0.00 | 0.00 | 0.00 | 51 | 1010.4 |
| 20260903181353 | 67 | 193 | 2.0 | 9.0 | 0.00 | 0.00 | 0.00 | 53 | 1010.5 |
| 20260903180551 | 66 | 173 | 4.0 | 9.0 | 0.00 | 0.00 | 0.00 | 51 | 1010.5 |
| 20260903180526 | 66 | 275 | 3.0 | 10.0 | 0.00 | 0.00 | 0.00 | 51 | 1010.5 |
| 20260903180224 | 67 | 228 | 4.0 | 10.0 | 0.00 | 0.00 | 0.00 | 51 | 1010.5 |
| 20260903175932 | 67 | 163 | 2.0 | 10.0 | 0.00 | 0.00 | 0.00 | 51 | 1010.6 |
| 20260903175603 | 66 | 219 | 3.0 | 10.0 | 0.00 | 0.00 | 0.00 | 52 | 1010.5 |
| 20260903175539 | 66 | 230 | 5.0 | 10.0 | 0.00 | 0.00 | 0.00 | 53 | 1010.5 |
| 20260903175518 | 66 | 272 | 5.0 | 10.0 | 0.00 | 0.00 | 0.00 | 52 | 1010.4 |
| 20260903175457 | 66 | 61 | 3.0 | 10.0 | 0.00 | 0.00 | 0.00 | 51 | 1010.5 |
| 20260903175152 | 66 | 155 | 5.0 | 10.0 | 0.00 | 0.00 | 0.00 | 52 | 1010.4 |
| 20260903175131 | 66 | 157 | 5.0 | 10.0 | 0.00 | 0.00 | 0.00 | 51 | 1010.5 |
| 20260903174801 | 66 | 165 | 3.0 | 10.0 | 0.00 | 0.00 | 0.00 | 52 | 1010.4 |
| 20260903174701 | 66 | 184 | 3.0 | 10.0 | 0.00 | 0.00 | 0.00 | 52 | 1010.4 |
| 20260903174602 | 66 | 196 | 2.0 | 10.0 | 0.00 | 0.00 | 0.00 | 52 | 1010.4 |
| 20260903174506 | 66 | 186 | 2.0 | 10.0 | 0.00 | 0.00 | 0.00 | 53 | 1010.4 |
| 20260903174444 | 66 | 236 | 4.0 | 10.0 | 0.00 | 0.00 | 0.00 | 52 | 1010.4 |
| 20260903174424 | 66 | 188 | 7.0 | 10.0 | 0.00 | 0.00 | 0.00 | 52 | 1010.4 |
| 20260903174402 | 66 | 190 | 5.0 | 10.0 | 0.00 | 0.00 | 0.00 | 51 | 1010.4 |
| 20260903174058 | 66 | 135 | 5.0 | 10.0 | 0.00 | 0.00 | 0.00 | 52 | 1010.4 |
| 20260903174036 | 66 | 155 | 5.0 | 10.0 | 0.00 | 0.00 | 0.00 | 53 | 1010.4 |
| 20260903173700 | 66 | 165 | 3.0 | 8.0 | 0.00 | 0.00 | 0.00 | 52 | 1010.4 |
| 20260903173612 | 66 | 188 | 3.0 | 9.0 | 0.00 | 0.00 | 0.00 | 51 | 1010.4 |
| 20260903173549 | 66 | 131 | 3.0 | 9.0 | 0.00 | 0.00 | 0.00 | 52 | 1010.4 |
| 20260903173528 | 66 | 200 | 4.0 | 9.0 | 0.00 | 0.00 | 0.00 | 51 | 1010.4 |
| 20260903173157 | 66 | 205 | 3.0 | 9.0 | 0.00 | 0.00 | 0.00 | 51 | 1010.5 |
| 20260903173057 | 66 | 182 | 3.0 | 9.0 | 0.00 | 0.00 | 0.00 | 53 | 1010.4 |
| 20260903172956 | 66 | 185 | 4.0 | 9.0 | 0.00 | 0.00 | 0.00 | 52 | 1010.4 |
| 20260903172857 | 66 | 285 | 4.0 | 9.0 | 0.00 | 0.00 | 0.00 | 51 | 1010.4 |
| 20260903172757 | 66 | 167 | 4.0 | 11.0 | 0.00 | 0.00 | 0.00 | 52 | 1010.4 |
| 20260903172657 | 66 | 173 | 4.0 | 11.0 | 0.00 | 0.00 | 0.00 | 51 | 1010.4 |
| 20260903172556 | 65 | 172 | 4.0 | 11.0 | 0.00 | 0.00 | 0.00 | 51 | 1010.4 |
| 20260903172455 | 65 | 238 | 4.0 | 11.0 | 0.00 | 0.00 | 0.00 | 52 | 1010.5 |
| 20260903172355 | 65 | 267 | 3.0 | 11.0 | 0.00 | 0.00 | 0.00 | 52 | 1010.4 |
| 20260903172253 | 65 | 169 | 4.0 | 11.0 | 0.00 | 0.00 | 0.00 | 52 | 1010.4 |
| 20260903172151 | 65 | 192 | 5.0 | 11.0 | 0.00 | 0.00 | 0.00 | 52 | 1010.5 |
| 20260903172052 | 65 | 173 | 6.0 | 12.0 | 0.00 | 0.00 | 0.00 | 52 | 1010.5 |
| 20260903172030 | 65 | 154 | 7.0 | 12.0 | 0.00 | 0.00 | 0.00 | 51 | 1010.5 |
| 20260903172007 | 65 | 180 | 6.0 | 12.0 | 0.00 | 0.00 | 0.00 | 52 | 1010.5 |
| 20260903171945 | 65 | 146 | 5.0 | 12.0 | 0.00 | 0.00 | 0.00 | 51 | 1010.5 |
| 20260903171639 | 65 | 186 | 5.0 | 12.0 | 0.00 | 0.00 | 0.00 | 51 | 1010.4 |
| 20260903171617 | 65 | 196 | 4.0 | 12.0 | 0.00 | 0.00 | 0.00 | 51 | 1010.4 |
| 20260903171248 | 65 | 188 | 6.0 | 12.0 | 0.00 | 0.00 | 0.00 | 54 | 1010.4 |
| 20260903171146 | 65 | 213 | 5.0 | 12.0 | 0.00 | 0.00 | 0.00 | 53 | 1010.4 |
| 20260903171044 | 65 | 180 | 4.0 | 11.0 | 0.00 | 0.00 | 0.00 | 54 | 1010.4 |
| 20260903171020 | 65 | 168 | 4.0 | 11.0 | 0.00 | 0.00 | 0.00 | 54 | 1010.4 |
| 20260903170957 | 65 | 227 | 5.0 | 11.0 | 0.00 | 0.00 | 0.00 | 54 | 1010.5 |
| 20260903170935 | 65 | 195 | 4.0 | 11.0 | 0.00 | 0.00 | 0.00 | 54 | 1010.5 |
| 20260903170914 | 64 | 194 | 3.0 | 10.0 | 0.00 | 0.00 | 0.00 | 54 | 1010.5 |
| 20260903170610 | 64 | 248 | 6.0 | 10.0 | 0.00 | 0.00 | 0.00 | 55 | 1010.4 |
| 20260903170240 | 64 | 189 | 4.0 | 13.0 | 0.00 | 0.00 | 0.00 | 55 | 1010.4 |
| 20260903170139 | 64 | 146 | 2.0 | 13.0 | 0.00 | 0.00 | 0.00 | 57 | 1010.5 |
| 20260903170056 | 64 | 192 | 2.0 | 13.0 | 0.00 | 0.00 | 0.00 | 57 | 1010.4 |
| 20260903170034 | 64 | 159 | 4.0 | 13.0 | 0.00 | 0.00 | 0.00 | 57 | 1010.4 |
| 20260903170009 | 64 | 286 | 4.0 | 13.0 | 0.00 | 0.00 | 0.00 | 56 | 1010.4 |
| 20260903165639 | 63 | 261 | 3.0 | 13.0 | 0.00 | 0.00 | 0.00 | 57 | 1010.4 |
| 20260903165536 | 63 | 212 | 5.0 | 13.0 | 0.00 | 0.00 | 0.00 | 57 | 1010.3 |
| 20260903165437 | 63 | 174 | 5.0 | 13.0 | 0.00 | 0.00 | 0.00 | 58 | 1010.3 |
| 20260903165402 | 63 | 262 | 3.0 | 10.0 | 0.00 | 0.00 | 0.00 | 59 | 1010.3 |
| 20260903165337 | 63 | 218 | 3.0 | 10.0 | 0.00 | 0.00 | 0.00 | 59 | 1010.3 |
| 20260903165317 | 63 | 196 | 4.0 | 10.0 | 0.00 | 0.00 | 0.00 | 60 | 1010.3 |
| 20260903165010 | 63 | 211 | 2.0 | 10.0 | 0.00 | 0.00 | 0.00 | 59 | 1010.3 |
| 20260903164947 | 63 | 196 | 1.0 | 10.0 | 0.00 | 0.00 | 0.00 | 60 | 1010.3 |
| 20260903164926 | 63 | 159 | 2.0 | 10.0 | 0.00 | 0.00 | 0.00 | 60 | 1010.3 |
| 20260903164622 | 62 | 258 | 3.0 | 10.0 | 0.00 | 0.00 | 0.00 | 59 | 1010.4 |
| 20260903164601 | 62 | 169 | 5.0 | 10.0 | 0.00 | 0.00 | 0.00 | 60 | 1010.4 |
| 20260903164540 | 62 | 161 | 5.0 | 10.0 | 0.00 | 0.00 | 0.00 | 59 | 1010.4 |
| 20260903164248 | 62 | 134 | 3.0 | 10.0 | 0.00 | 0.00 | 0.00 | 60 | 1010.5 |
| 20260903164213 | 62 | 270 | 3.0 | 10.0 | 0.00 | 0.00 | 0.00 | 59 | 1010.5 |
| 20260903164152 | 62 | 239 | 3.0 | 10.0 | 0.00 | 0.00 | 0.00 | 60 | 1010.5 |
| 20260903164129 | 62 | 173 | 3.0 | 10.0 | 0.00 | 0.00 | 0.00 | 59 | 1010.4 |
| 20260903163528 | 62 | 180 | 4.0 | 10.0 | 0.00 | 0.00 | 0.00 | 59 | 1010.4 |
| 20260903163428 | 62 | 188 | 5.0 | 10.0 | 0.00 | 0.00 | 0.00 | 61 | 1010.4 |
| 20260903163327 | 62 | 241 | 4.0 | 10.0 | 0.00 | 0.00 | 0.00 | 59 | 1010.4 |
| 20260903163227 | 62 | 161 | 3.0 | 10.0 | 0.00 | 0.00 | 0.00 | 60 | 1010.4 |
| 20260903163126 | 62 | 231 | 5.0 | 10.0 | 0.00 | 0.00 | 0.00 | 61 | 1010.4 |
| 20260903163027 | 62 | 200 | 5.0 | 10.0 | 0.00 | 0.00 | 0.00 | 60 | 1010.5 |
| 20260903162938 | 62 | 157 | 2.0 | 11.0 | 0.00 | 0.00 | 0.00 | 60 | 1010.5 |
| 20260903162913 | 62 | 233 | 3.0 | 11.0 | 0.00 | 0.00 | 0.00 | 61 | 1010.4 |
| 20260903162853 | 62 | 311 | 3.0 | 11.0 | 0.00 | 0.00 | 0.00 | 60 | 1010.4 |
| 20260903162523 | 62 | 276 | 4.0 | 11.0 | 0.00 | 0.00 | 0.00 | 60 | 1010.4 |
| 20260903162422 | 62 | 273 | 3.0 | 11.0 | 0.00 | 0.00 | 0.00 | 61 | 1010.3 |
| 20260903162320 | 62 | 238 | 3.0 | 11.0 | 0.00 | 0.00 | 0.00 | 60 | 1010.4 |
| 20260903162221 | 62 | 175 | 4.0 | 11.0 | 0.00 | 0.00 | 0.00 | 59 | 1010.4 |
| 20260903162120 | 62 | 306 | 3.0 | 11.0 | 0.00 | 0.00 | 0.00 | 60 | 1010.5 |
| 20260903162020 | 62 | 269 | 2.0 | 13.0 | 0.00 | 0.00 | 0.00 | 61 | 1010.4 |
| 20260903161919 | 62 | 255 | 3.0 | 13.0 | 0.00 | 0.00 | 0.00 | 60 | 1010.4 |
| 20260903161818 | 62 | 238 | 2.0 | 13.0 | 0.00 | 0.00 | 0.00 | 60 | 1010.4 |
| 20260903161744 | 62 | 286 | 2.0 | 13.0 | 0.00 | 0.00 | 0.00 | 60 | 1010.4 |
| 20260903161720 | 62 | 242 | 3.0 | 13.0 | 0.00 | 0.00 | 0.00 | 60 | 1010.5 |
| 20260903161646 | 62 | 227 | 3.0 | 13.0 | 0.00 | 0.00 | 0.00 | 59 | 1010.5 |
| 20260903161315 | 62 | 184 | 2.0 | 13.0 | 0.00 | 0.00 | 0.00 | 62 | 1010.6 |
| 20260903161215 | 62 | 232 | 5.0 | 13.0 | 0.00 | 0.00 | 0.00 | 60 | 1010.5 |
| 20260903161114 | 62 | 189 | 4.0 | 18.0 | 0.00 | 0.00 | 0.00 | 59 | 1010.4 |
| 20260903161013 | 62 | 183 | 3.0 | 18.0 | 0.00 | 0.00 | 0.00 | 61 | 1010.5 |
| 20260903160913 | 62 | 172 | 2.0 | 18.0 | 0.00 | 0.00 | 0.00 | 60 | 1010.5 |
| 20260903160813 | 62 | 219 | 3.0 | 18.0 | 0.00 | 0.00 | 0.00 | 60 | 1010.4 |
| 20260903160739 | 62 | 192 | 4.0 | 18.0 | 0.00 | 0.00 | 0.00 | 60 | 1010.4 |
| 20260903160716 | 62 | 193 | 4.0 | 18.0 | 0.00 | 0.00 | 0.00 | 59 | 1010.3 |
| 20260903160642 | 62 | 274 | 4.0 | 18.0 | 0.00 | 0.00 | 0.00 | 59 | 1010.3 |
| 20260903160309 | 62 | 196 | 5.0 | 18.0 | 0.00 | 0.00 | 0.00 | 59 | 1010.3 |
| 20260903160210 | 62 | 249 | 4.0 | 18.0 | 0.00 | 0.00 | 0.00 | 60 | 1010.2 |
| 20260903160148 | 62 | 250 | 4.0 | 9.0 | 0.00 | 0.00 | 0.00 | 59 | 1010.3 |
| 20260903160111 | 62 | 236 | 4.0 | 9.0 | 0.00 | 0.00 | 0.00 | 59 | 1010.3 |
| 20260903160051 | 62 | 287 | 3.0 | 9.0 | 0.00 | 0.00 | 0.00 | 59 | 1010.2 |
| 20260903155706 | 62 | 205 | 3.0 | 9.0 | 0.00 | 0.00 | 0.00 | 60 | 1010.2 |
| 20260903155605 | 62 | 246 | 4.0 | 9.0 | 0.00 | 0.00 | 0.00 | 59 | 1010.2 |
| 20260903155517 | 62 | 165 | 2.0 | 9.0 | 0.00 | 0.00 | 0.00 | 59 | 1010.2 |
| 20260903155454 | 62 | 200 | 3.0 | 9.0 | 0.00 | 0.00 | 0.00 | 60 | 1010.2 |
| 20260903155433 | 62 | 277 | 3.0 | 9.0 | 0.00 | 0.00 | 0.00 | 61 | 1010.3 |
| 20260903155102 | 62 | 159 | 4.0 | 8.0 | 0.00 | 0.00 | 0.00 | 61 | 1010.3 |
| 20260903155001 | 62 | 209 | 4.0 | 8.0 | 0.00 | 0.00 | 0.00 | 59 | 1010.2 |
| 20260903154902 | 62 | 148 | 4.0 | 8.0 | 0.00 | 0.00 | 0.00 | 60 | 1010.3 |
| 20260903154803 | 62 | 175 | 4.0 | 9.0 | 0.00 | 0.00 | 0.00 | 59 | 1010.2 |
| 20260903154704 | 62 | 197 | 4.0 | 11.0 | 0.00 | 0.00 | 0.00 | 60 | 1010.3 |
| 20260903154602 | 62 | 190 | 3.0 | 11.0 | 0.00 | 0.00 | 0.00 | 60 | 1010.2 |
| 20260903154517 | 62 | 217 | 2.0 | 11.0 | 0.00 | 0.00 | 0.00 | 61 | 1010.2 |
| 20260903154454 | 62 | 178 | 2.0 | 11.0 | 0.00 | 0.00 | 0.00 | 61 | 1010.3 |
| 20260903154433 | 62 | 213 | 2.0 | 11.0 | 0.00 | 0.00 | 0.00 | 62 | 1010.2 |
| 20260903154411 | 61 | 294 | 3.0 | 11.0 | 0.00 | 0.00 | 0.00 | 62 | 1010.2 |
| 20260903154351 | 61 | 209 | 4.0 | 11.0 | 0.00 | 0.00 | 0.00 | 61 | 1010.2 |
| 20260903154314 | 61 | 212 | 5.0 | 11.0 | 0.00 | 0.00 | 0.00 | 61 | 1010.2 |
| 20260903154026 | 61 | 180 | 5.0 | 11.0 | 0.00 | 0.00 | 0.00 | 61 | 1010.3 |
| 20260903153731 | 61 | 208 | 4.0 | 10.0 | 0.00 | 0.00 | 0.00 | 62 | 1010.2 |
| 20260903153711 | 61 | 163 | 4.0 | 10.0 | 0.00 | 0.00 | 0.00 | 63 | 1010.2 |
| 20260903153635 | 61 | 233 | 4.0 | 10.0 | 0.00 | 0.00 | 0.00 | 62 | 1010.2 |
| 20260903153615 | 61 | 184 | 4.0 | 10.0 | 0.00 | 0.00 | 0.00 | 63 | 1010.1 |
| 20260903153552 | 61 | 188 | 5.0 | 10.0 | 0.00 | 0.00 | 0.00 | 63 | 1010.2 |
| 20260903153304 | 61 | 190 | 4.0 | 9.0 | 0.00 | 0.00 | 0.00 | 63 | 1010.2 |
| 20260903153228 | 61 | 245 | 4.0 | 9.0 | 0.00 | 0.00 | 0.00 | 64 | 1010.2 |
| 20260903152935 | 61 | 219 | 3.0 | 10.0 | 0.00 | 0.00 | 0.00 | 64 | 1010.2 |
| 20260903152913 | 61 | 200 | 2.0 | 11.0 | 0.00 | 0.00 | 0.00 | 64 | 1010.2 |
| 20260903152852 | 60 | 267 | 4.0 | 11.0 | 0.00 | 0.00 | 0.00 | 64 | 1010.2 |
| 20260903152817 | 60 | 320 | 4.0 | 11.0 | 0.00 | 0.00 | 0.00 | 64 | 1010.1 |
| 20260903152526 | 60 | 213 | 2.0 | 11.0 | 0.00 | 0.00 | 0.00 | 66 | 1010.1 |
| 20260903152506 | 60 | 202 | 4.0 | 11.0 | 0.00 | 0.00 | 0.00 | 66 | 1010.1 |
| 20260903152201 | 60 | 178 | 5.0 | 11.0 | 0.00 | 0.00 | 0.00 | 66 | 1010.1 |
| 20260903151601 | 60 | 257 | 3.0 | 10.0 | 0.00 | 0.00 | 0.00 | 67 | 1010.1 |
| 20260903151506 | 60 | 168 | 4.0 | 10.0 | 0.00 | 0.00 | 0.00 | 67 | 1010.1 |
| 20260903151401 | 60 | 188 | 4.0 | 10.0 | 0.00 | 0.00 | 0.00 | 67 | 1010.1 |
| 20260903151303 | 60 | 191 | 3.0 | 10.0 | 0.00 | 0.00 | 0.00 | 67 | 1009.9 |
| 20260903151200 | 60 | 196 | 3.0 | 10.0 | 0.00 | 0.00 | 0.00 | 67 | 1010.1 |
| 20260903151101 | 60 | 207 | 4.0 | 10.0 | 0.00 | 0.00 | 0.00 | 66 | 1010.1 |
| 20260903151003 | 60 | 240 | 4.0 | 10.0 | 0.00 | 0.00 | 0.00 | 66 | 1010.1 |
| 20260903150917 | 60 | 176 | 4.0 | 10.0 | 0.00 | 0.00 | 0.00 | 66 | 1010.1 |
| 20260903150852 | 60 | 212 | 4.0 | 10.0 | 0.00 | 0.00 | 0.00 | 66 | 1010.1 |
| 20260903150832 | 60 | 199 | 4.0 | 10.0 | 0.00 | 0.00 | 0.00 | 67 | 1010.1 |
| 20260903150501 | 60 | 215 | 4.0 | 10.0 | 0.00 | 0.00 | 0.00 | 66 | 1010.1 |
| 20260903150400 | 60 | 186 | 3.0 | 10.0 | 0.00 | 0.00 | 0.00 | 67 | 1010.2 |
| 20260903150300 | 60 | 163 | 4.0 | 10.0 | 0.00 | 0.00 | 0.00 | 67 | 1010.1 |
| 20260903150159 | 60 | 180 | 4.0 | 10.0 | 0.00 | 0.00 | 0.00 | 67 | 1010.1 |
| 20260903150058 | 60 | 188 | 4.0 | 10.0 | 0.00 | 0.00 | 0.00 | 67 | 1010.2 |
| 20260903150001 | 60 | 177 | 4.0 | 9.0 | 0.00 | 0.00 | 0.00 | 66 | 1010.1 |
| 20260903145901 | 60 | 209 | 3.0 | 9.0 | 0.00 | 0.00 | 0.00 | 67 | 1010.2 |
| 20260903145759 | 60 | 179 | 4.0 | 9.0 | 0.00 | 0.00 | 0.00 | 67 | 1010.1 |
| 20260903145723 | 59 | 223 | 4.0 | 9.0 | 0.00 | 0.00 | 0.00 | 67 | 1010.1 |
| 20260903145700 | 59 | 259 | 5.0 | 9.0 | 0.00 | 0.00 | 0.00 | 67 | 1010.1 |
| 20260903145640 | 59 | 183 | 5.0 | 9.0 | 0.00 | 0.00 | 0.00 | 68 | 1010.1 |
| 20260903145255 | 59 | 244 | 4.0 | 12.0 | 0.00 | 0.00 | 0.00 | 68 | 1010.1 |
| 20260903145154 | 59 | 299 | 3.0 | 12.0 | 0.00 | 0.00 | 0.00 | 68 | 1010.2 |
| 20260903145053 | 59 | 175 | 4.0 | 12.0 | 0.00 | 0.00 | 0.00 | 68 | 1010.1 |
| 20260903144955 | 59 | 163 | 3.0 | 12.0 | 0.00 | 0.00 | 0.00 | 69 | 1010.1 |
| 20260903144853 | 59 | 222 | 3.0 | 12.0 | 0.00 | 0.00 | 0.00 | 70 | 1010.2 |
| 20260903144751 | 59 | 289 | 4.0 | 12.0 | 0.00 | 0.00 | 0.00 | 70 | 1010.2 |
| 20260903144653 | 58 | 198 | 4.0 | 12.0 | 0.00 | 0.00 | 0.00 | 70 | 1010.2 |
| 20260903144629 | 58 | 155 | 4.0 | 12.0 | 0.00 | 0.00 | 0.00 | 70 | 1010.2 |
| 20260903144607 | 58 | 189 | 6.0 | 12.0 | 0.00 | 0.00 | 0.00 | 70 | 1010.2 |
| 20260903144532 | 58 | 214 | 5.0 | 12.0 | 0.00 | 0.00 | 0.00 | 71 | 1010.2 |
| 20260903144512 | 58 | 232 | 3.0 | 12.0 | 0.00 | 0.00 | 0.00 | 71 | 1010.1 |
| 20260903144448 | 58 | 205 | 3.0 | 12.0 | 0.00 | 0.00 | 0.00 | 71 | 1010.1 |
| 20260903144428 | 58 | 150 | 3.0 | 12.0 | 0.00 | 0.00 | 0.00 | 72 | 1010.1 |
| 20260903144123 | 58 | 223 | 3.0 | 12.0 | 0.00 | 0.00 | 0.00 | 73 | 1010.2 |
| 20260903144059 | 58 | 230 | 3.0 | 12.0 | 0.00 | 0.00 | 0.00 | 73 | 1010.1 |
| 20260903144039 | 58 | 205 | 4.0 | 12.0 | 0.00 | 0.00 | 0.00 | 73 | 1010.1 |
| 20260903144019 | 58 | 187 | 4.0 | 12.0 | 0.00 | 0.00 | 0.00 | 73 | 1010.2 |
| 20260903143957 | 58 | 182 | 3.0 | 12.0 | 0.00 | 0.00 | 0.00 | 73 | 1010.2 |
| 20260903143923 | 57 | 246 | 4.0 | 11.0 | 0.00 | 0.00 | 0.00 | 74 | 1010.2 |
| 20260903143901 | 57 | 207 | 5.0 | 11.0 | 0.00 | 0.00 | 0.00 | 74 | 1010.2 |
| 20260903143839 | 57 | 217 | 5.0 | 11.0 | 0.00 | 0.00 | 0.00 | 75 | 1010.1 |
| 20260903143550 | 57 | 228 | 4.0 | 10.0 | 0.00 | 0.00 | 0.00 | 75 | 1010.1 |
| 20260903143246 | 57 | 250 | 4.0 | 10.0 | 0.00 | 0.00 | 0.00 | 76 | 1010.2 |
| 20260903143226 | 57 | 221 | 3.0 | 10.0 | 0.00 | 0.00 | 0.00 | 77 | 1010.1 |
| 20260903143203 | 57 | 171 | 4.0 | 10.0 | 0.00 | 0.00 | 0.00 | 78 | 1010.1 |
| 20260903143142 | 57 | 277 | 3.0 | 10.0 | 0.00 | 0.00 | 0.00 | 78 | 1010.2 |
| 20260903142611 | 56 | 244 | 0.0 | 5.0 | 0.00 | 0.00 | 0.00 | 79 | 1010.1 |
| 20260903142038 | 56 | 249 | 2.0 | 6.0 | 0.00 | 0.00 | 0.00 | 80 | 1010.2 |
| 20260903141747 | 56 | 198 | 0.0 | 7.0 | 0.00 | 0.00 | 0.00 | 80 | 1010.2 |
| 20260903141411 | 56 | 228 | 2.0 | 8.0 | 0.00 | 0.00 | 0.00 | 80 | 1010.2 |
| 20260903141310 | 56 | 273 | 2.0 | 8.0 | 0.00 | 0.00 | 0.00 | 80 | 1010.2 |
| 20260903141210 | 56 | 255 | 2.0 | 8.0 | 0.00 | 0.00 | 0.00 | 81 | 1010.2 |
| 20260903141109 | 56 | 281 | 2.0 | 8.0 | 0.00 | 0.00 | 0.00 | 81 | 1010.2 |
| 20260903141009 | 56 | 250 | 3.0 | 8.0 | 0.00 | 0.00 | 0.00 | 81 | 1010.2 |
| 20260903140907 | 56 | 230 | 3.0 | 8.0 | 0.00 | 0.00 | 0.00 | 80 | 1010.2 |
| 20260903140808 | 56 | 273 | 3.0 | 8.0 | 0.00 | 0.00 | 0.00 | 81 | 1010.2 |
| 20260903140707 | 56 | 243 | 3.0 | 8.0 | 0.00 | 0.00 | 0.00 | 81 | 1010.2 |
| 20260903140606 | 56 | 246 | 4.0 | 8.0 | 0.00 | 0.00 | 0.00 | 81 | 1010.1 |
| 20260903140506 | 56 | 280 | 1.0 | 8.0 | 0.00 | 0.00 | 0.00 | 81 | 1010.1 |
| 20260903140406 | 56 | 275 | 2.0 | 7.0 | 0.00 | 0.00 | 0.00 | 81 | 1010.1 |
| 20260903140316 | 56 | 240 | 3.0 | 7.0 | 0.00 | 0.00 | 0.00 | 81 | 1010.1 |
| 20260903140251 | 56 | 241 | 2.0 | 7.0 | 0.00 | 0.00 | 0.00 | 81 | 1010.1 |
| 20260903140232 | 56 | 279 | 2.0 | 6.0 | 0.00 | 0.00 | 0.00 | 82 | 1010.1 |
| 20260903135901 | 56 | 273 | 3.0 | 6.0 | 0.00 | 0.00 | 0.00 | 82 | 1010.1 |
| 20260903135802 | 56 | 284 | 2.0 | 6.0 | 0.00 | 0.00 | 0.00 | 82 | 1010.1 |
| 20260903135702 | 55 | 246 | 2.0 | 6.0 | 0.00 | 0.00 | 0.00 | 82 | 1010.1 |
| 20260903135626 | 55 | 207 | 2.0 | 5.0 | 0.00 | 0.00 | 0.00 | 82 | 1010.1 |
| 20260903135604 | 55 | 197 | 1.0 | 5.0 | 0.00 | 0.00 | 0.00 | 82 | 1010.1 |
| 20260903135528 | 55 | 266 | 2.0 | 5.0 | 0.00 | 0.00 | 0.00 | 82 | 1010.1 |
| 20260903135159 | 55 | 212 | 2.0 | 5.0 | 0.00 | 0.00 | 0.00 | 81 | 1010.1 |
| 20260903135058 | 55 | 269 | 2.0 | 6.0 | 0.00 | 0.00 | 0.00 | 81 | 1010.1 |
| 20260903134957 | 55 | 225 | 2.0 | 6.0 | 0.00 | 0.00 | 0.00 | 81 | 1009.9 |
| 20260903134857 | 55 | 242 | 2.0 | 6.0 | 0.00 | 0.00 | 0.00 | 81 | 1009.9 |
| 20260903134751 | 55 | 150 | 2.0 | 6.0 | 0.00 | 0.00 | 0.00 | 81 | 1009.9 |
| 20260903134650 | 55 | 160 | 2.0 | 6.0 | 0.00 | 0.00 | 0.00 | 81 | 1009.9 |
| 20260903134550 | 55 | 262 | 2.0 | 6.0 | 0.00 | 0.00 | 0.00 | 81 | 1009.9 |
| 20260903134449 | 55 | 249 | 2.0 | 6.0 | 0.00 | 0.00 | 0.00 | 81 | 1009.9 |
| 20260903134348 | 55 | 140 | 2.0 | 9.0 | 0.00 | 0.00 | 0.00 | 81 | 1009.9 |
| 20260903134255 | 55 | 234 | 2.0 | 9.0 | 0.00 | 0.00 | 0.00 | 81 | 1009.9 |
| 20260903134231 | 55 | 209 | 1.0 | 9.0 | 0.00 | 0.00 | 0.00 | 81 | 1009.9 |
| 20260903134211 | 55 | 242 | 2.0 | 9.0 | 0.00 | 0.00 | 0.00 | 81 | 1009.9 |
| 20260903133842 | 55 | 146 | 2.0 | 9.0 | 0.00 | 0.00 | 0.00 | 82 | 1009.8 |
| 20260903133751 | 55 | 202 | 2.0 | 9.0 | 0.00 | 0.00 | 0.00 | 82 | 1009.8 |
| 20260903133729 | 55 | 188 | 2.0 | 9.0 | 0.00 | 0.00 | 0.00 | 82 | 1009.8 |
| 20260903133707 | 56 | 238 | 3.0 | 9.0 | 0.00 | 0.00 | 0.00 | 82 | 1009.7 |
| 20260903133646 | 55 | 235 | 3.0 | 9.0 | 0.00 | 0.00 | 0.00 | 82 | 1009.7 |
| 20260903133611 | 55 | 257 | 3.0 | 9.0 | 0.00 | 0.00 | 0.00 | 81 | 1009.7 |
| 20260903133549 | 55 | 275 | 2.0 | 9.0 | 0.00 | 0.00 | 0.00 | 81 | 1009.7 |
| 20260903133529 | 55 | 190 | 2.0 | 9.0 | 0.00 | 0.00 | 0.00 | 81 | 1009.7 |
| 20260903133511 | 56 | 217 | 3.0 | 9.0 | 0.00 | 0.00 | 0.00 | 81 | 1009.6 |
| 20260903133204 | 56 | 187 | 3.0 | 9.0 | 0.00 | 0.00 | 0.00 | 81 | 1009.7 |
| 20260903132915 | 56 | 222 | 4.0 | 9.0 | 0.00 | 0.00 | 0.00 | 81 | 1009.7 |
| 20260903132625 | 56 | 194 | 2.0 | 8.0 | 0.00 | 0.00 | 0.00 | 81 | 1009.6 |
| 20260903132550 | 56 | 214 | 2.0 | 8.0 | 0.00 | 0.00 | 0.00 | 81 | 1009.6 |
| 20260903132527 | 56 | 189 | 3.0 | 8.0 | 0.00 | 0.00 | 0.00 | 81 | 1009.6 |
| 20260903131958 | 56 | 225 | 3.0 | 8.0 | 0.00 | 0.00 | 0.00 | 81 | 1009.6 |
| 20260903131921 | 56 | 171 | 3.0 | 8.0 | 0.00 | 0.00 | 0.00 | 81 | 1009.5 |
| 20260903131900 | 56 | 190 | 3.0 | 8.0 | 0.00 | 0.00 | 0.00 | 81 | 1009.5 |
| 20260903131552 | 56 | 211 | 3.0 | 7.0 | 0.00 | 0.00 | 0.00 | 82 | 1009.6 |
| 20260903131532 | 56 | 201 | 4.0 | 7.0 | 0.00 | 0.00 | 0.00 | 82 | 1009.5 |
| 20260903131454 | 55 | 248 | 4.0 | 7.0 | 0.00 | 0.00 | 0.00 | 82 | 1009.5 |
| 20260903131433 | 55 | 153 | 3.0 | 7.0 | 0.00 | 0.00 | 0.00 | 83 | 1009.5 |
| 20260903131412 | 55 | 205 | 2.0 | 7.0 | 0.00 | 0.00 | 0.00 | 83 | 1009.4 |
| 20260903131352 | 56 | 189 | 2.0 | 7.0 | 0.00 | 0.00 | 0.00 | 83 | 1009.4 |
| 20260903131329 | 55 | 156 | 2.0 | 7.0 | 0.00 | 0.00 | 0.00 | 83 | 1009.4 |
| 20260903131255 | 56 | 228 | 2.0 | 7.0 | 0.00 | 0.00 | 0.00 | 83 | 1009.4 |
| 20260903131004 | 56 | 174 | 1.0 | 6.0 | 0.00 | 0.00 | 0.00 | 83 | 1009.4 |
| 20260903130943 | 56 | 174 | 1.0 | 6.0 | 0.00 | 0.00 | 0.00 | 83 | 1009.5 |
| 20260903130639 | 56 | 265 | 2.0 | 6.0 | 0.00 | 0.00 | 0.00 | 83 | 1009.5 |
| 20260903130618 | 56 | 173 | 2.0 | 6.0 | 0.00 | 0.00 | 0.00 | 83 | 1009.5 |
| 20260903130553 | 56 | 229 | 2.0 | 6.0 | 0.00 | 0.00 | 0.00 | 83 | 1009.5 |
| 20260903130305 | 56 | 271 | 2.0 | 6.0 | 0.00 | 0.00 | 0.00 | 83 | 1009.5 |
| 20260903125959 | 56 | 254 | 2.0 | 6.0 | 0.00 | 0.00 | 0.00 | 83 | 1009.5 |
| 20260903125939 | 56 | 220 | 1.0 | 5.0 | 0.00 | 0.00 | 0.00 | 83 | 1009.5 |
| 20260903125403 | 56 | 140 | 1.0 | 6.0 | 0.00 | 0.00 | 0.00 | 83 | 1009.5 |
| 20260903125343 | 56 | 211 | 2.0 | 7.0 | 0.00 | 0.00 | 0.00 | 83 | 1009.5 |
| 20260903125012 | 56 | 211 | 2.0 | 7.0 | 0.00 | 0.00 | 0.00 | 83 | 1009.4 |
| 20260903124913 | 56 | 257 | 2.0 | 7.0 | 0.00 | 0.00 | 0.00 | 83 | 1009.4 |
| 20260903124811 | 56 | 253 | 2.0 | 7.0 | 0.00 | 0.00 | 0.00 | 83 | 1009.4 |
| 20260903124710 | 56 | 250 | 2.0 | 7.0 | 0.00 | 0.00 | 0.00 | 83 | 1009.4 |
| 20260903124610 | 56 | 171 | 2.0 | 7.0 | 0.00 | 0.00 | 0.00 | 84 | 1009.4 |
| 20260903124509 | 56 | 219 | 2.0 | 7.0 | 0.00 | 0.00 | 0.00 | 84 | 1009.4 |
| 20260903124422 | 56 | 178 | 3.0 | 7.0 | 0.00 | 0.00 | 0.00 | 83 | 1009.4 |
| 20260903124344 | 56 | 194 | 2.0 | 7.0 | 0.00 | 0.00 | 0.00 | 83 | 1009.4 |
| 20260903124324 | 56 | 215 | 2.0 | 7.0 | 0.00 | 0.00 | 0.00 | 83 | 1009.4 |
| 20260903124301 | 56 | 244 | 2.0 | 7.0 | 0.00 | 0.00 | 0.00 | 83 | 1009.5 |
| 20260903124008 | 56 | 103 | 3.0 | 7.0 | 0.00 | 0.00 | 0.00 | 83 | 1009.5 |
| 20260903123933 | 56 | 205 | 2.0 | 7.0 | 0.00 | 0.00 | 0.00 | 83 | 1009.5 |
| 20260903123631 | 56 | 193 | 3.0 | 7.0 | 0.00 | 0.00 | 0.00 | 84 | 1009.4 |
| 20260903123608 | 56 | 182 | 2.0 | 7.0 | 0.00 | 0.00 | 0.00 | 84 | 1009.5 |
| 20260903123548 | 56 | 214 | 2.0 | 7.0 | 0.00 | 0.00 | 0.00 | 83 | 1009.5 |
| 20260903123202 | 56 | 217 | 2.0 | 6.0 | 0.00 | 0.00 | 0.00 | 83 | 1009.5 |
| 20260903123102 | 56 | 180 | 2.0 | 6.0 | 0.00 | 0.00 | 0.00 | 83 | 1009.5 |
| 20260903123001 | 56 | 222 | 2.0 | 6.0 | 0.00 | 0.00 | 0.00 | 83 | 1009.5 |
| 20260903122900 | 56 | 180 | 2.0 | 6.0 | 0.00 | 0.00 | 0.00 | 83 | 1009.5 |
| 20260903122801 | 56 | 229 | 2.0 | 8.0 | 0.00 | 0.00 | 0.00 | 83 | 1009.5 |
| 20260903122701 | 56 | 238 | 3.0 | 8.0 | 0.00 | 0.00 | 0.00 | 83 | 1009.4 |
| 20260903122602 | 56 | 205 | 3.0 | 8.0 | 0.00 | 0.00 | 0.00 | 83 | 1009.4 |
| 20260903122528 | 56 | 222 | 3.0 | 10.0 | 0.00 | 0.00 | 0.00 | 83 | 1009.5 |
| 20260903122505 | 56 | 234 | 3.0 | 10.0 | 0.00 | 0.00 | 0.00 | 83 | 1009.5 |
| 20260903122430 | 56 | 178 | 3.0 | 10.0 | 0.00 | 0.00 | 0.00 | 83 | 1009.4 |
| 20260903122137 | 56 | 177 | 3.0 | 10.0 | 0.00 | 0.00 | 0.00 | 84 | 1009.5 |
| 20260903122115 | 56 | 240 | 4.0 | 10.0 | 0.00 | 0.00 | 0.00 | 84 | 1009.4 |
| 20260903122053 | 56 | 189 | 4.0 | 10.0 | 0.00 | 0.00 | 0.00 | 84 | 1009.5 |
| 20260903122017 | 56 | 155 | 4.0 | 10.0 | 0.00 | 0.00 | 0.00 | 84 | 1009.4 |
| 20260903121725 | 56 | 188 | 2.0 | 10.0 | 0.00 | 0.00 | 0.00 | 84 | 1009.4 |
| 20260903121703 | 56 | 158 | 2.0 | 7.0 | 0.00 | 0.00 | 0.00 | 84 | 1009.4 |
| 20260903121643 | 56 | 182 | 3.0 | 7.0 | 0.00 | 0.00 | 0.00 | 84 | 1009.4 |
| 20260903121605 | 56 | 207 | 3.0 | 7.0 | 0.00 | 0.00 | 0.00 | 84 | 1009.4 |
| 20260903121315 | 56 | 170 | 2.0 | 7.0 | 0.00 | 0.00 | 0.00 | 84 | 1009.5 |
| 20260903121254 | 56 | 213 | 3.0 | 7.0 | 0.00 | 0.00 | 0.00 | 84 | 1009.4 |
| 20260903121233 | 56 | 230 | 2.0 | 7.0 | 0.00 | 0.00 | 0.00 | 84 | 1009.4 |
| 20260903121155 | 56 | 155 | 2.0 | 7.0 | 0.00 | 0.00 | 0.00 | 84 | 1009.4 |
| 20260903121135 | 56 | 188 | 2.0 | 6.0 | 0.00 | 0.00 | 0.00 | 84 | 1009.4 |
| 20260903121113 | 56 | 239 | 2.0 | 6.0 | 0.00 | 0.00 | 0.00 | 84 | 1009.5 |
| 20260903120824 | 56 | 211 | 2.0 | 6.0 | 0.00 | 0.00 | 0.00 | 84 | 1009.4 |
| 20260903120748 | 56 | 166 | 1.0 | 6.0 | 0.00 | 0.00 | 0.00 | 83 | 1009.4 |
| 20260903120455 | 56 | 150 | 2.0 | 6.0 | 0.00 | 0.00 | 0.00 | 83 | 1009.4 |
| 20260903120434 | 56 | 213 | 0.0 | 6.0 | 0.00 | 0.00 | 0.00 | 83 | 1009.4 |
| 20260903120413 | 56 | 180 | 0.0 | 3.0 | 0.00 | 0.00 | 0.00 | 83 | 1009.4 |
| 20260903120337 | 56 | 165 | 1.0 | 4.0 | 0.00 | 0.00 | 0.00 | 83 | 1009.4 |
| 20260903115822 | 57 | 202 | 1.0 | 4.0 | 0.00 | 0.00 | 0.00 | 83 | 1009.4 |
| 20260903115250 | 57 | 202 | 1.0 | 4.0 | 0.00 | 0.00 | 0.00 | 83 | 1009.5 |
| 20260903115229 | 57 | 202 | 2.0 | 4.0 | 0.00 | 0.00 | 0.00 | 83 | 1009.5 |
| 20260903114906 | 57 | 232 | 0.0 | 4.0 | 0.00 | 0.00 | 0.00 | 83 | 1009.4 |
| 20260903114830 | 57 | 201 | 0.0 | 5.0 | 0.00 | 0.00 | 0.00 | 83 | 1009.4 |
| 20260903114809 | 57 | 237 | 0.0 | 5.0 | 0.00 | 0.00 | 0.00 | 83 | 1009.3 |
| 20260903114751 | 57 | 237 | 0.0 | 5.0 | 0.00 | 0.00 | 0.00 | 83 | 1009.4 |
| 20260903114503 | 57 | 237 | 1.0 | 5.0 | 0.00 | 0.00 | 0.00 | 83 | 1009.3 |
| 20260903114426 | 57 | 173 | 1.0 | 5.0 | 0.00 | 0.00 | 0.00 | 83 | 1009.3 |
| 20260903114407 | 57 | 208 | 1.0 | 5.0 | 0.00 | 0.00 | 0.00 | 83 | 1009.3 |
| 20260903114116 | 57 | 173 | 1.0 | 5.0 | 0.00 | 0.00 | 0.00 | 83 | 1009.3 |
| 20260903114055 | 57 | 187 | 1.0 | 5.0 | 0.00 | 0.00 | 0.00 | 83 | 1009.4 |
| 20260903113750 | 57 | 225 | 2.0 | 4.0 | 0.00 | 0.00 | 0.00 | 83 | 1009.3 |
| 20260903113725 | 57 | 175 | 1.0 | 4.0 | 0.00 | 0.00 | 0.00 | 83 | 1009.3 |
| 20260903113704 | 57 | 211 | 0.0 | 4.0 | 0.00 | 0.00 | 0.00 | 83 | 1009.3 |
| 20260903113645 | 57 | 150 | 0.0 | 5.0 | 0.00 | 0.00 | 0.00 | 83 | 1009.3 |
| 20260903113610 | 57 | 150 | 1.0 | 5.0 | 0.00 | 0.00 | 0.00 | 83 | 1009.3 |
| 20260903113547 | 58 | 224 | 1.0 | 5.0 | 0.00 | 0.00 | 0.00 | 82 | 1009.4 |
| 20260903113257 | 58 | 261 | 1.0 | 5.0 | 0.00 | 0.00 | 0.00 | 82 | 1009.4 |
| 20260903113236 | 58 | 279 | 2.0 | 5.0 | 0.00 | 0.00 | 0.00 | 82 | 1009.3 |
| 20260903113201 | 58 | 242 | 2.0 | 5.0 | 0.00 | 0.00 | 0.00 | 82 | 1009.4 |
| 20260903113140 | 58 | 191 | 2.0 | 5.0 | 0.00 | 0.00 | 0.00 | 82 | 1009.4 |
| 20260903113118 | 58 | 216 | 2.0 | 5.0 | 0.00 | 0.00 | 0.00 | 82 | 1009.4 |
| 20260903113057 | 58 | 250 | 1.0 | 5.0 | 0.00 | 0.00 | 0.00 | 82 | 1009.4 |
| 20260903112754 | 58 | 278 | 1.0 | 6.0 | 0.00 | 0.00 | 0.00 | 82 | 1009.4 |
| 20260903112506 | 58 | 163 | 1.0 | 7.0 | 0.00 | 0.00 | 0.00 | 82 | 1009.3 |
| 20260903112445 | 58 | 261 | 2.0 | 8.0 | 0.00 | 0.00 | 0.00 | 82 | 1009.3 |
| 20260903112142 | 58 | 278 | 2.0 | 8.0 | 0.00 | 0.00 | 0.00 | 82 | 1009.2 |
| 20260903112120 | 58 | 266 | 2.0 | 9.0 | 0.00 | 0.00 | 0.00 | 82 | 1009.2 |
| 20260903111830 | 58 | 187 | 3.0 | 9.0 | 0.00 | 0.00 | 0.00 | 82 | 1009.1 |
| 20260903111257 | 58 | 171 | 5.0 | 9.0 | 0.00 | 0.00 | 0.00 | 82 | 1009.0 |
| 20260903110928 | 58 | 193 | 5.0 | 13.0 | 0.00 | 0.00 | 0.00 | 82 | 1008.9 |
| 20260903110855 | 58 | 166 | 4.0 | 13.0 | 0.00 | 0.00 | 0.00 | 82 | 1009.0 |
| 20260903110816 | 58 | 182 | 3.0 | 13.0 | 0.00 | 0.00 | 0.00 | 82 | 1009.0 |
| 20260903110755 | 58 | 150 | 4.0 | 13.0 | 0.00 | 0.00 | 0.00 | 82 | 1008.9 |
| 20260903110423 | 58 | 180 | 6.0 | 13.0 | 0.00 | 0.00 | 0.00 | 82 | 1008.8 |
| 20260903110322 | 58 | 190 | 6.0 | 13.0 | 0.00 | 0.00 | 0.00 | 82 | 1008.9 |
| 20260903110222 | 58 | 181 | 6.0 | 13.0 | 0.00 | 0.00 | 0.00 | 82 | 1008.9 |
| 20260903110132 | 58 | 152 | 7.0 | 13.0 | 0.00 | 0.00 | 0.00 | 82 | 1008.8 |
| 20260903110110 | 58 | 203 | 6.0 | 12.0 | 0.00 | 0.00 | 0.00 | 82 | 1008.7 |
| 20260903110049 | 58 | 177 | 5.0 | 9.0 | 0.00 | 0.00 | 0.00 | 82 | 1008.8 |
| 20260903105719 | 58 | 184 | 5.0 | 10.0 | 0.00 | 0.00 | 0.00 | 82 | 1008.8 |
| 20260903105619 | 58 | 162 | 5.0 | 11.0 | 0.00 | 0.00 | 0.00 | 82 | 1008.8 |
| 20260903105517 | 58 | 128 | 5.0 | 11.0 | 0.00 | 0.00 | 0.00 | 82 | 1008.8 |
| 20260903105418 | 58 | 192 | 5.0 | 11.0 | 0.00 | 0.00 | 0.00 | 82 | 1008.7 |
| 20260903105317 | 58 | 152 | 5.0 | 11.0 | 0.00 | 0.00 | 0.00 | 82 | 1008.7 |
| 20260903105216 | 58 | 145 | 4.0 | 11.0 | 0.00 | 0.00 | 0.00 | 82 | 1008.7 |
| 20260903105116 | 58 | 175 | 4.0 | 11.0 | 0.00 | 0.00 | 0.00 | 82 | 1008.8 |
| 20260903105015 | 58 | 152 | 5.0 | 11.0 | 0.00 | 0.00 | 0.00 | 82 | 1008.7 |
| 20260903104914 | 58 | 168 | 5.0 | 12.0 | 0.00 | 0.00 | 0.00 | 82 | 1008.7 |
| 20260903104820 | 58 | 172 | 6.0 | 12.0 | 0.00 | 0.00 | 0.00 | 82 | 1008.7 |
| 20260903104714 | 58 | 151 | 5.0 | 12.0 | 0.00 | 0.00 | 0.00 | 82 | 1008.7 |
| 20260903104612 | 58 | 165 | 4.0 | 13.0 | 0.00 | 0.00 | 0.00 | 82 | 1008.7 |
| 20260903104514 | 58 | 155 | 6.0 | 13.0 | 0.00 | 0.00 | 0.00 | 82 | 1008.7 |
| 20260903104413 | 58 | 178 | 6.0 | 13.0 | 0.00 | 0.00 | 0.00 | 82 | 1008.7 |
| 20260903104312 | 58 | 158 | 6.0 | 13.0 | 0.00 | 0.00 | 0.00 | 82 | 1008.6 |
| 20260903104223 | 58 | 168 | 6.0 | 13.0 | 0.00 | 0.00 | 0.00 | 82 | 1008.6 |
| 20260903104200 | 58 | 188 | 6.0 | 13.0 | 0.00 | 0.00 | 0.00 | 82 | 1008.7 |
| 20260903104140 | 58 | 180 | 5.0 | 13.0 | 0.00 | 0.00 | 0.00 | 82 | 1008.6 |
| 20260903103808 | 58 | 157 | 7.0 | 13.0 | 0.00 | 0.00 | 0.00 | 83 | 1008.6 |
| 20260903103707 | 58 | 168 | 5.0 | 13.0 | 0.00 | 0.00 | 0.00 | 83 | 1008.6 |
| 20260903103606 | 58 | 164 | 6.0 | 9.0 | 0.00 | 0.00 | 0.00 | 83 | 1008.7 |
| 20260903103505 | 58 | 159 | 5.0 | 10.0 | 0.00 | 0.00 | 0.00 | 83 | 1008.6 |
| 20260903103403 | 58 | 172 | 4.0 | 10.0 | 0.00 | 0.00 | 0.00 | 83 | 1008.6 |
| 20260903103303 | 58 | 178 | 4.0 | 10.0 | 0.00 | 0.00 | 0.00 | 83 | 1008.7 |
| 20260903103202 | 58 | 148 | 5.0 | 10.0 | 0.00 | 0.00 | 0.00 | 83 | 1008.7 |
| 20260903103102 | 58 | 166 | 5.0 | 10.0 | 0.00 | 0.00 | 0.00 | 83 | 1008.7 |
| 20260903103003 | 58 | 172 | 5.0 | 10.0 | 0.00 | 0.00 | 0.00 | 83 | 1008.8 |
| 20260903102916 | 58 | 187 | 3.0 | 10.0 | 0.00 | 0.00 | 0.00 | 83 | 1008.7 |
| 20260903102856 | 58 | 154 | 4.0 | 10.0 | 0.00 | 0.00 | 0.00 | 83 | 1008.8 |
| 20260903102818 | 58 | 169 | 4.0 | 10.0 | 0.00 | 0.00 | 0.00 | 83 | 1008.8 |
| 20260903102758 | 58 | 182 | 4.0 | 10.0 | 0.00 | 0.00 | 0.00 | 83 | 1008.8 |
| 20260903102736 | 58 | 145 | 3.0 | 10.0 | 0.00 | 0.00 | 0.00 | 83 | 1008.8 |
| 20260903102445 | 58 | 159 | 4.0 | 10.0 | 0.00 | 0.00 | 0.00 | 83 | 1008.7 |
| 20260903102102 | 58 | 171 | 4.0 | 10.0 | 0.00 | 0.00 | 0.00 | 83 | 1008.7 |
| 20260903102003 | 58 | 179 | 3.0 | 10.0 | 0.00 | 0.00 | 0.00 | 83 | 1008.7 |
| 20260903101901 | 58 | 210 | 3.0 | 9.0 | 0.00 | 0.00 | 0.00 | 83 | 1008.7 |
| 20260903101802 | 58 | 211 | 2.0 | 9.0 | 0.00 | 0.00 | 0.00 | 83 | 1008.7 |
| 20260903101701 | 58 | 237 | 2.0 | 9.0 | 0.00 | 0.00 | 0.00 | 83 | 1008.7 |
| 20260903101601 | 58 | 192 | 4.0 | 9.0 | 0.00 | 0.00 | 0.00 | 83 | 1008.8 |
| 20260903101500 | 58 | 205 | 4.0 | 9.0 | 0.00 | 0.00 | 0.00 | 83 | 1008.7 |
| 20260903101423 | 58 | 184 | 4.0 | 9.0 | 0.00 | 0.00 | 0.00 | 83 | 1008.7 |
| 20260903101359 | 58 | 185 | 4.0 | 9.0 | 0.00 | 0.00 | 0.00 | 83 | 1008.6 |
| 20260903101326 | 59 | 157 | 4.0 | 9.0 | 0.00 | 0.00 | 0.00 | 83 | 1008.7 |
| 20260903101308 | 59 | 222 | 3.0 | 9.0 | 0.00 | 0.00 | 0.00 | 83 | 1008.6 |
| 20260903101015 | 59 | 221 | 3.0 | 9.0 | 0.00 | 0.00 | 0.00 | 82 | 1008.7 |
| 20260903100953 | 59 | 197 | 3.0 | 9.0 | 0.00 | 0.00 | 0.00 | 82 | 1008.7 |
| 20260903100918 | 59 | 246 | 3.0 | 9.0 | 0.00 | 0.00 | 0.00 | 83 | 1008.7 |
| 20260903100627 | 59 | 200 | 1.0 | 6.0 | 0.00 | 0.00 | 0.00 | 82 | 1008.7 |
| 20260903100250 | 59 | 240 | 2.0 | 4.0 | 0.00 | 0.00 | 0.00 | 82 | 1008.6 |
| 20260903100150 | 59 | 233 | 2.0 | 5.0 | 0.00 | 0.00 | 0.00 | 82 | 1008.7 |
| 20260903100049 | 59 | 142 | 2.0 | 6.0 | 0.00 | 0.00 | 0.00 | 82 | 1008.7 |
| 20260903095948 | 59 | 130 | 2.0 | 6.0 | 0.00 | 0.00 | 0.00 | 82 | 1008.7 |
| 20260903095848 | 59 | 252 | 2.0 | 6.0 | 0.00 | 0.00 | 0.00 | 82 | 1008.6 |
| 20260903095747 | 59 | 186 | 2.0 | 6.0 | 0.00 | 0.00 | 0.00 | 82 | 1008.7 |
| 20260903095647 | 59 | 234 | 2.0 | 6.0 | 0.00 | 0.00 | 0.00 | 81 | 1008.7 |
| 20260903095546 | 59 | 219 | 1.0 | 6.0 | 0.00 | 0.00 | 0.00 | 81 | 1008.6 |
| 20260903095445 | 59 | 229 | 2.0 | 6.0 | 0.00 | 0.00 | 0.00 | 81 | 1008.7 |
| 20260903095344 | 59 | 186 | 2.0 | 6.0 | 0.00 | 0.00 | 0.00 | 81 | 1008.6 |
| 20260903095244 | 59 | 205 | 2.0 | 6.0 | 0.00 | 0.00 | 0.00 | 81 | 1008.6 |
| 20260903095145 | 59 | 167 | 2.0 | 6.0 | 0.00 | 0.00 | 0.00 | 81 | 1008.6 |
| 20260903095044 | 59 | 198 | 2.0 | 6.0 | 0.00 | 0.00 | 0.00 | 82 | 1008.6 |
| 20260903094943 | 59 | 204 | 2.0 | 6.0 | 0.00 | 0.00 | 0.00 | 82 | 1008.6 |
| 20260903094843 | 59 | 159 | 3.0 | 6.0 | 0.00 | 0.00 | 0.00 | 82 | 1008.6 |
| 20260903094742 | 59 | 212 | 3.0 | 6.0 | 0.00 | 0.00 | 0.00 | 82 | 1008.5 |
| 20260903094641 | 59 | 182 | 2.0 | 6.0 | 0.00 | 0.00 | 0.00 | 82 | 1008.5 |
| 20260903094541 | 59 | 201 | 1.0 | 6.0 | 0.00 | 0.00 | 0.00 | 82 | 1008.6 |
| 20260903094441 | 59 | 167 | 0.0 | 4.0 | 0.00 | 0.00 | 0.00 | 82 | 1008.6 |
| 20260903094339 | 59 | 211 | 0.0 | 4.0 | 0.00 | 0.00 | 0.00 | 82 | 1008.6 |
| 20260903094238 | 59 | 211 | 1.0 | 8.0 | 0.00 | 0.00 | 0.00 | 82 | 1008.6 |
| 20260903094140 | 59 | 211 | 2.0 | 8.0 | 0.00 | 0.00 | 0.00 | 82 | 1008.6 |
| 20260903094040 | 59 | 254 | 2.0 | 8.0 | 0.00 | 0.00 | 0.00 | 82 | 1008.6 |
| 20260903093938 | 59 | 201 | 2.0 | 8.0 | 0.00 | 0.00 | 0.00 | 82 | 1008.6 |
| 20260903093832 | 59 | 109 | 2.0 | 8.0 | 0.00 | 0.00 | 0.00 | 82 | 1008.6 |
| 20260903093730 | 59 | 216 | 2.0 | 8.0 | 0.00 | 0.00 | 0.00 | 82 | 1008.6 |
| 20260903093629 | 59 | 181 | 2.0 | 8.0 | 0.00 | 0.00 | 0.00 | 82 | 1008.6 |
| 20260903093532 | 59 | 250 | 3.0 | 8.0 | 0.00 | 0.00 | 0.00 | 82 | 1008.6 |
| 20260903093432 | 59 | 194 | 3.0 | 8.0 | 0.00 | 0.00 | 0.00 | 81 | 1008.6 |
| 20260903093330 | 59 | 165 | 3.0 | 8.0 | 0.00 | 0.00 | 0.00 | 81 | 1008.6 |
| 20260903093256 | 59 | 209 | 3.0 | 8.0 | 0.00 | 0.00 | 0.00 | 81 | 1008.6 |
| 20260903093221 | 59 | 186 | 3.0 | 10.0 | 0.00 | 0.00 | 0.00 | 81 | 1008.6 |
| 20260903093200 | 59 | 279 | 2.0 | 10.0 | 0.00 | 0.00 | 0.00 | 81 | 1008.6 |
| 20260903092842 | 59 | 161 | 2.0 | 11.0 | 0.00 | 0.00 | 0.00 | 81 | 1008.6 |
| 20260903092818 | 59 | 199 | 3.0 | 11.0 | 0.00 | 0.00 | 0.00 | 81 | 1008.6 |
| 20260903092742 | 59 | 188 | 4.0 | 11.0 | 0.00 | 0.00 | 0.00 | 80 | 1008.6 |
| 20260903092722 | 59 | 189 | 3.0 | 11.0 | 0.00 | 0.00 | 0.00 | 80 | 1008.6 |
| 20260903092700 | 59 | 212 | 3.0 | 12.0 | 0.00 | 0.00 | 0.00 | 80 | 1008.6 |
| 20260903092638 | 59 | 199 | 4.0 | 12.0 | 0.00 | 0.00 | 0.00 | 80 | 1008.6 |
| 20260903092617 | 59 | 232 | 3.0 | 12.0 | 0.00 | 0.00 | 0.00 | 80 | 1008.5 |
| 20260903092543 | 60 | 194 | 4.0 | 12.0 | 0.00 | 0.00 | 0.00 | 80 | 1008.5 |
| 20260903092521 | 60 | 225 | 4.0 | 12.0 | 0.00 | 0.00 | 0.00 | 80 | 1008.5 |
| 20260903092501 | 60 | 217 | 3.0 | 12.0 | 0.00 | 0.00 | 0.00 | 80 | 1008.4 |
| 20260903092439 | 60 | 197 | 4.0 | 12.0 | 0.00 | 0.00 | 0.00 | 80 | 1008.4 |
| 20260903092419 | 60 | 208 | 5.0 | 12.0 | 0.00 | 0.00 | 0.00 | 80 | 1008.4 |
| 20260903092344 | 60 | 182 | 5.0 | 12.0 | 0.00 | 0.00 | 0.00 | 80 | 1008.3 |
| 20260903091555 | 60 | 193 | 3.0 | 7.0 | 0.00 | 0.00 | 0.00 | 79 | 1008.3 |
| 20260903091253 | 60 | 155 | 3.0 | 7.0 | 0.00 | 0.00 | 0.00 | 79 | 1008.3 |
| 20260903091230 | 60 | 261 | 3.0 | 10.0 | 0.00 | 0.00 | 0.00 | 79 | 1008.2 |
| 20260903090629 | 60 | 227 | 2.0 | 10.0 | 0.00 | 0.00 | 0.00 | 79 | 1008.1 |
| 20260903090529 | 60 | 188 | 3.0 | 10.0 | 0.00 | 0.00 | 0.00 | 79 | 1008.2 |
| 20260903090456 | 60 | 161 | 4.0 | 10.0 | 0.00 | 0.00 | 0.00 | 78 | 1008.1 |
| 20260903090434 | 60 | 130 | 4.0 | 10.0 | 0.00 | 0.00 | 0.00 | 78 | 1008.1 |
| 20260903090413 | 60 | 211 | 4.0 | 10.0 | 0.00 | 0.00 | 0.00 | 78 | 1008.1 |
| 20260903090024 | 60 | 213 | 4.0 | 10.0 | 0.00 | 0.00 | 0.00 | 78 | 1008.1 |
| 20260903085924 | 60 | 213 | 4.0 | 10.0 | 0.00 | 0.00 | 0.00 | 78 | 1008.1 |
| 20260903085835 | 60 | 211 | 4.0 | 10.0 | 0.00 | 0.00 | 0.00 | 78 | 1008.1 |
| 20260903085811 | 60 | 221 | 4.0 | 10.0 | 0.00 | 0.00 | 0.00 | 78 | 1008.1 |
| 20260903085736 | 60 | 202 | 3.0 | 10.0 | 0.00 | 0.00 | 0.00 | 78 | 1008.2 |
| 20260903085716 | 60 | 227 | 2.0 | 7.0 | 0.00 | 0.00 | 0.00 | 78 | 1008.1 |
| 20260903085423 | 60 | 191 | 3.0 | 7.0 | 0.00 | 0.00 | 0.00 | 78 | 1008.1 |
| 20260903085402 | 60 | 192 | 3.0 | 7.0 | 0.00 | 0.00 | 0.00 | 78 | 1008.1 |
| 20260903085017 | 60 | 198 | 4.0 | 7.0 | 0.00 | 0.00 | 0.00 | 78 | 1008.0 |
| 20260903084919 | 60 | 154 | 4.0 | 7.0 | 0.00 | 0.00 | 0.00 | 78 | 1008.0 |
| 20260903084816 | 60 | 166 | 3.0 | 6.0 | 0.00 | 0.00 | 0.00 | 77 | 1007.9 |
| 20260903084716 | 60 | 206 | 3.0 | 6.0 | 0.00 | 0.00 | 0.00 | 77 | 1007.9 |
| 20260903084627 | 60 | 210 | 3.0 | 6.0 | 0.00 | 0.00 | 0.00 | 77 | 1008.0 |
| 20260903084605 | 60 | 168 | 2.0 | 6.0 | 0.00 | 0.00 | 0.00 | 77 | 1007.9 |
| 20260903084543 | 60 | 179 | 2.0 | 6.0 | 0.00 | 0.00 | 0.00 | 77 | 1007.9 |
| 20260903084211 | 60 | 240 | 2.0 | 7.0 | 0.00 | 0.00 | 0.00 | 77 | 1007.9 |
| 20260903084112 | 60 | 195 | 2.0 | 7.0 | 0.00 | 0.00 | 0.00 | 77 | 1007.9 |
| 20260903084010 | 60 | 176 | 2.0 | 7.0 | 0.00 | 0.00 | 0.00 | 77 | 1007.9 |
| 20260903083913 | 60 | 189 | 2.0 | 7.0 | 0.00 | 0.00 | 0.00 | 77 | 1007.9 |
| 20260903083809 | 60 | 236 | 3.0 | 7.0 | 0.00 | 0.00 | 0.00 | 77 | 1007.9 |
| 20260903083710 | 60 | 136 | 4.0 | 7.0 | 0.00 | 0.00 | 0.00 | 77 | 1008.0 |
| 20260903083622 | 60 | 193 | 4.0 | 7.0 | 0.00 | 0.00 | 0.00 | 77 | 1008.0 |
| 20260903083600 | 60 | 172 | 4.0 | 7.0 | 0.00 | 0.00 | 0.00 | 77 | 1007.9 |
| 20260903083538 | 60 | 250 | 4.0 | 7.0 | 0.00 | 0.00 | 0.00 | 77 | 1007.9 |
| 20260903083235 | 60 | 175 | 3.0 | 8.0 | 0.00 | 0.00 | 0.00 | 77 | 1007.9 |
| 20260903083159 | 60 | 160 | 3.0 | 8.0 | 0.00 | 0.00 | 0.00 | 77 | 1008.0 |
| 20260903083136 | 60 | 172 | 3.0 | 8.0 | 0.00 | 0.00 | 0.00 | 77 | 1007.9 |
| 20260903082843 | 60 | 268 | 3.0 | 9.0 | 0.00 | 0.00 | 0.00 | 78 | 1007.9 |
| 20260903082821 | 60 | 186 | 4.0 | 9.0 | 0.00 | 0.00 | 0.00 | 78 | 1007.9 |
| 20260903082746 | 60 | 161 | 3.0 | 9.0 | 0.00 | 0.00 | 0.00 | 78 | 1007.8 |
| 20260903082453 | 60 | 221 | 2.0 | 9.0 | 0.00 | 0.00 | 0.00 | 78 | 1007.7 |
| 20260903082432 | 60 | 215 | 2.0 | 9.0 | 0.00 | 0.00 | 0.00 | 78 | 1007.8 |
| 20260903082114 | 60 | 186 | 4.0 | 9.0 | 0.00 | 0.00 | 0.00 | 78 | 1007.8 |
| 20260903082053 | 60 | 261 | 3.0 | 9.0 | 0.00 | 0.00 | 0.00 | 78 | 1007.8 |
| 20260903082034 | 59 | 164 | 2.0 | 9.0 | 0.00 | 0.00 | 0.00 | 78 | 1007.8 |
| 20260903081703 | 59 | 182 | 2.0 | 6.0 | 0.00 | 0.00 | 0.00 | 78 | 1007.8 |
| 20260903081601 | 59 | 209 | 2.0 | 6.0 | 0.00 | 0.00 | 0.00 | 79 | 1007.9 |
| 20260903081500 | 59 | 204 | 2.0 | 6.0 | 0.00 | 0.00 | 0.00 | 79 | 1007.8 |
| 20260903081400 | 59 | 230 | 2.0 | 6.0 | 0.00 | 0.00 | 0.00 | 79 | 1007.8 |
| 20260903081301 | 59 | 221 | 2.0 | 6.0 | 0.00 | 0.00 | 0.00 | 79 | 1007.7 |
| 20260903081201 | 59 | 210 | 3.0 | 6.0 | 0.00 | 0.00 | 0.00 | 79 | 1007.7 |
| 20260903081101 | 59 | 198 | 2.0 | 6.0 | 0.00 | 0.00 | 0.00 | 79 | 1007.6 |
| 20260903080957 | 59 | 99 | 2.0 | 5.0 | 0.00 | 0.00 | 0.00 | 80 | 1007.6 |
| 20260903080857 | 59 | 271 | 2.0 | 5.0 | 0.00 | 0.00 | 0.00 | 79 | 1007.6 |
| 20260903080759 | 59 | 196 | 3.0 | 5.0 | 0.00 | 0.00 | 0.00 | 80 | 1007.6 |
| 20260903080659 | 59 | 209 | 2.0 | 5.0 | 0.00 | 0.00 | 0.00 | 80 | 1007.5 |
| 20260903080550 | 59 | 166 | 2.0 | 6.0 | 0.00 | 0.00 | 0.00 | 80 | 1007.6 |
| 20260903080451 | 59 | 202 | 3.0 | 6.0 | 0.00 | 0.00 | 0.00 | 80 | 1007.6 |
| 20260903080349 | 59 | 233 | 2.0 | 6.0 | 0.00 | 0.00 | 0.00 | 80 | 1007.6 |
| 20260903080250 | 59 | 210 | 2.0 | 6.0 | 0.00 | 0.00 | 0.00 | 80 | 1007.6 |
| 20260903080152 | 59 | 240 | 2.0 | 6.0 | 0.00 | 0.00 | 0.00 | 80 | 1007.5 |
| 20260903080049 | 59 | 220 | 2.0 | 6.0 | 0.00 | 0.00 | 0.00 | 80 | 1007.5 |
| 20260903075947 | 59 | 214 | 2.0 | 6.0 | 0.00 | 0.00 | 0.00 | 80 | 1007.5 |
| 20260903075848 | 59 | 250 | 2.0 | 6.0 | 0.00 | 0.00 | 0.00 | 80 | 1007.5 |
| 20260903075746 | 59 | 213 | 2.0 | 7.0 | 0.00 | 0.00 | 0.00 | 80 | 1007.6 |
| 20260903075650 | 59 | 207 | 2.0 | 7.0 | 0.00 | 0.00 | 0.00 | 80 | 1007.6 |
| 20260903075544 | 59 | 150 | 2.0 | 9.0 | 0.00 | 0.00 | 0.00 | 80 | 1007.6 |
| 20260903075444 | 59 | 208 | 2.0 | 9.0 | 0.00 | 0.00 | 0.00 | 80 | 1007.6 |
| 20260903075342 | 59 | 244 | 2.0 | 9.0 | 0.00 | 0.00 | 0.00 | 80 | 1007.6 |
| 20260903075243 | 59 | 188 | 2.0 | 9.0 | 0.00 | 0.00 | 0.00 | 80 | 1007.6 |
| 20260903075147 | 59 | 229 | 3.0 | 9.0 | 0.00 | 0.00 | 0.00 | 80 | 1007.6 |
| 20260903075041 | 59 | 186 | 4.0 | 9.0 | 0.00 | 0.00 | 0.00 | 80 | 1007.6 |
| 20260903074941 | 59 | 178 | 4.0 | 9.0 | 0.00 | 0.00 | 0.00 | 80 | 1007.6 |
| 20260903074840 | 59 | 192 | 4.0 | 9.0 | 0.00 | 0.00 | 0.00 | 80 | 1007.7 |
| 20260903074739 | 59 | 198 | 4.0 | 9.0 | 0.00 | 0.00 | 0.00 | 81 | 1007.6 |
| 20260903074645 | 59 | 192 | 3.0 | 9.0 | 0.00 | 0.00 | 0.00 | 81 | 1007.6 |
| 20260903074548 | 59 | 187 | 2.0 | 9.0 | 0.00 | 0.00 | 0.00 | 81 | 1007.6 |
| 20260903074528 | 59 | 166 | 2.0 | 9.0 | 0.00 | 0.00 | 0.00 | 81 | 1007.6 |
| 20260903074506 | 59 | 173 | 3.0 | 9.0 | 0.00 | 0.00 | 0.00 | 81 | 1007.6 |
| 20260903074143 | 59 | 190 | 3.0 | 9.0 | 0.00 | 0.00 | 0.00 | 82 | 1007.7 |
| 20260903074037 | 59 | 227 | 2.0 | 9.0 | 0.00 | 0.00 | 0.00 | 82 | 1007.7 |
| 20260903073934 | 59 | 172 | 3.0 | 9.0 | 0.00 | 0.00 | 0.00 | 82 | 1007.6 |
| 20260903073842 | 59 | 163 | 4.0 | 9.0 | 0.00 | 0.00 | 0.00 | 82 | 1007.7 |
| 20260903073816 | 59 | 164 | 3.0 | 9.0 | 0.00 | 0.00 | 0.00 | 82 | 1007.7 |
| 20260903073754 | 59 | 245 | 3.0 | 11.0 | 0.00 | 0.00 | 0.00 | 82 | 1007.6 |
| 20260903073719 | 59 | 216 | 3.0 | 11.0 | 0.00 | 0.00 | 0.00 | 82 | 1007.7 |
| 20260903073659 | 59 | 180 | 3.0 | 11.0 | 0.00 | 0.00 | 0.00 | 82 | 1007.6 |
| 20260903073636 | 59 | 215 | 3.0 | 11.0 | 0.00 | 0.00 | 0.00 | 82 | 1007.6 |
| 20260903073029 | 59 | 135 | 3.0 | 15.0 | 0.00 | 0.00 | 0.00 | 82 | 1007.5 |
| 20260903072929 | 59 | 128 | 4.0 | 15.0 | 0.00 | 0.00 | 0.00 | 82 | 1007.5 |
| 20260903072831 | 59 | 204 | 5.0 | 15.0 | 0.00 | 0.00 | 0.00 | 82 | 1007.5 |
| 20260903072729 | 59 | 174 | 5.0 | 15.0 | 0.00 | 0.00 | 0.00 | 82 | 1007.5 |
| 20260903072638 | 59 | 227 | 4.0 | 15.0 | 0.00 | 0.00 | 0.00 | 82 | 1007.5 |
| 20260903072529 | 59 | 190 | 4.0 | 15.0 | 0.00 | 0.00 | 0.00 | 82 | 1007.5 |
| 20260903072449 | 59 | 180 | 5.0 | 15.0 | 0.00 | 0.00 | 0.00 | 82 | 1007.4 |
| 20260903072426 | 59 | 178 | 5.0 | 15.0 | 0.00 | 0.00 | 0.00 | 82 | 1007.4 |
| 20260903072407 | 59 | 143 | 5.0 | 15.0 | 0.00 | 0.00 | 0.00 | 82 | 1007.4 |
| 20260903072030 | 59 | 163 | 5.0 | 12.0 | 0.00 | 0.00 | 0.00 | 81 | 1007.5 |
| 20260903071928 | 59 | 190 | 5.0 | 12.0 | 0.00 | 0.00 | 0.00 | 81 | 1007.5 |
| 20260903071828 | 59 | 248 | 6.0 | 12.0 | 0.00 | 0.00 | 0.00 | 81 | 1007.5 |
| 20260903071753 | 59 | 180 | 6.0 | 12.0 | 0.00 | 0.00 | 0.00 | 81 | 1007.6 |
| 20260903071732 | 59 | 168 | 5.0 | 12.0 | 0.00 | 0.00 | 0.00 | 81 | 1007.5 |
| 20260903071656 | 59 | 180 | 3.0 | 10.0 | 0.00 | 0.00 | 0.00 | 81 | 1007.5 |
| 20260903071324 | 59 | 198 | 2.0 | 8.0 | 0.00 | 0.00 | 0.00 | 81 | 1007.6 |
| 20260903071249 | 59 | 200 | 2.0 | 8.0 | 0.00 | 0.00 | 0.00 | 81 | 1007.6 |
| 20260903071226 | 59 | 182 | 3.0 | 8.0 | 0.00 | 0.00 | 0.00 | 81 | 1007.5 |
| 20260903071152 | 59 | 205 | 4.0 | 8.0 | 0.00 | 0.00 | 0.00 | 81 | 1007.6 |
| 20260903070822 | 59 | 207 | 3.0 | 7.0 | 0.00 | 0.00 | 0.00 | 80 | 1007.6 |
| 20260903070721 | 60 | 317 | 3.0 | 7.0 | 0.00 | 0.00 | 0.00 | 80 | 1007.6 |
| 20260903070625 | 60 | 269 | 3.0 | 7.0 | 0.00 | 0.00 | 0.00 | 80 | 1007.6 |
| 20260903070519 | 60 | 190 | 4.0 | 8.0 | 0.00 | 0.00 | 0.00 | 80 | 1007.5 |
| 20260903070420 | 60 | 217 | 3.0 | 8.0 | 0.00 | 0.00 | 0.00 | 80 | 1007.5 |
| 20260903070320 | 60 | 192 | 2.0 | 8.0 | 0.00 | 0.00 | 0.00 | 80 | 1007.6 |
| 20260903070218 | 60 | 197 | 2.0 | 8.0 | 0.00 | 0.00 | 0.00 | 80 | 1007.5 |
| 20260903070120 | 60 | 241 | 2.0 | 9.0 | 0.00 | 0.00 | 0.00 | 80 | 1007.5 |
| 20260903070018 | 60 | 211 | 3.0 | 9.0 | 0.00 | 0.00 | 0.00 | 80 | 1007.5 |
| 20260903065916 | 60 | 124 | 4.0 | 9.0 | 0.00 | 0.00 | 0.00 | 80 | 1007.4 |
| 20260903065816 | 60 | 223 | 4.0 | 9.0 | 0.00 | 0.00 | 0.00 | 79 | 1007.4 |
| 20260903065714 | 60 | 146 | 5.0 | 9.0 | 0.00 | 0.00 | 0.00 | 79 | 1007.4 |
| 20260903065619 | 60 | 164 | 5.0 | 9.0 | 0.00 | 0.00 | 0.00 | 79 | 1007.4 |
| 20260903065513 | 60 | 196 | 4.0 | 9.0 | 0.00 | 0.00 | 0.00 | 79 | 1007.4 |
| 20260903065414 | 60 | 149 | 4.0 | 9.0 | 0.00 | 0.00 | 0.00 | 79 | 1007.4 |
| 20260903065312 | 60 | 205 | 5.0 | 9.0 | 0.00 | 0.00 | 0.00 | 79 | 1007.3 |
| 20260903065212 | 60 | 123 | 5.0 | 9.0 | 0.00 | 0.00 | 0.00 | 79 | 1007.4 |
| 20260903065114 | 60 | 180 | 5.0 | 9.0 | 0.00 | 0.00 | 0.00 | 79 | 1007.3 |
| 20260903065011 | 60 | 150 | 3.0 | 9.0 | 0.00 | 0.00 | 0.00 | 79 | 1007.3 |
| 20260903064929 | 60 | 225 | 3.0 | 7.0 | 0.00 | 0.00 | 0.00 | 80 | 1007.3 |
| 20260903064906 | 60 | 243 | 3.0 | 7.0 | 0.00 | 0.00 | 0.00 | 80 | 1007.3 |
| 20260903064844 | 60 | 215 | 3.0 | 7.0 | 0.00 | 0.00 | 0.00 | 80 | 1007.3 |
| 20260903064507 | 60 | 163 | 2.0 | 10.0 | 0.00 | 0.00 | 0.00 | 80 | 1007.3 |
| 20260903064407 | 60 | 204 | 2.0 | 10.0 | 0.00 | 0.00 | 0.00 | 80 | 1007.3 |
| 20260903064306 | 60 | 187 | 3.0 | 12.0 | 0.00 | 0.00 | 0.00 | 80 | 1007.3 |
| 20260903064207 | 60 | 240 | 3.0 | 12.0 | 0.00 | 0.00 | 0.00 | 80 | 1007.2 |
| 20260903064109 | 60 | 227 | 4.0 | 12.0 | 0.00 | 0.00 | 0.00 | 79 | 1007.3 |
| 20260903064006 | 60 | 185 | 4.0 | 12.0 | 0.00 | 0.00 | 0.00 | 79 | 1007.3 |
| 20260903063943 | 60 | 265 | 3.0 | 12.0 | 0.00 | 0.00 | 0.00 | 79 | 1007.2 |
| 20260903063921 | 60 | 192 | 4.0 | 12.0 | 0.00 | 0.00 | 0.00 | 79 | 1007.2 |
| 20260903063855 | 60 | 187 | 4.0 | 12.0 | 0.00 | 0.00 | 0.00 | 79 | 1007.2 |
| 20260903063835 | 60 | 242 | 4.0 | 12.0 | 0.00 | 0.00 | 0.00 | 79 | 1007.2 |
| 20260903063531 | 60 | 177 | 4.0 | 12.0 | 0.00 | 0.00 | 0.00 | 79 | 1007.2 |
| 20260903063201 | 60 | 236 | 5.0 | 10.0 | 0.00 | 0.00 | 0.00 | 79 | 1007.2 |
| 20260903063105 | 60 | 250 | 5.0 | 10.0 | 0.00 | 0.00 | 0.00 | 79 | 1007.1 |
| 20260903062958 | 60 | 298 | 5.0 | 10.0 | 0.00 | 0.00 | 0.00 | 79 | 1007.2 |
| 20260903062858 | 60 | 189 | 5.0 | 10.0 | 0.00 | 0.00 | 0.00 | 78 | 1007.1 |
| 20260903062757 | 60 | 222 | 4.0 | 10.0 | 0.00 | 0.00 | 0.00 | 79 | 1007.1 |
| 20260903062656 | 60 | 167 | 5.0 | 9.0 | 0.00 | 0.00 | 0.00 | 78 | 1007.2 |
| 20260903062620 | 60 | 117 | 4.0 | 9.0 | 0.00 | 0.00 | 0.00 | 78 | 1007.1 |
| 20260903062545 | 60 | 171 | 4.0 | 9.0 | 0.00 | 0.00 | 0.00 | 78 | 1007.2 |
| 20260903062523 | 60 | 213 | 3.0 | 7.0 | 0.00 | 0.00 | 0.00 | 78 | 1007.2 |
| 20260903062153 | 60 | 234 | 3.0 | 8.0 | 0.00 | 0.00 | 0.00 | 78 | 1007.2 |
| 20260903062059 | 60 | 212 | 4.0 | 8.0 | 0.00 | 0.00 | 0.00 | 78 | 1007.2 |
| 20260903061952 | 60 | 223 | 3.0 | 8.0 | 0.00 | 0.00 | 0.00 | 78 | 1007.2 |
| 20260903061851 | 60 | 172 | 4.0 | 8.0 | 0.00 | 0.00 | 0.00 | 77 | 1007.2 |
| 20260903061751 | 60 | 225 | 5.0 | 8.0 | 0.00 | 0.00 | 0.00 | 77 | 1007.1 |
| 20260903061650 | 60 | 235 | 4.0 | 9.0 | 0.00 | 0.00 | 0.00 | 77 | 1007.2 |
| 20260903061556 | 60 | 167 | 4.0 | 9.0 | 0.00 | 0.00 | 0.00 | 77 | 1007.2 |
| 20260903061449 | 60 | 191 | 4.0 | 14.0 | 0.00 | 0.00 | 0.00 | 77 | 1007.3 |
| 20260903061348 | 60 | 187 | 4.0 | 14.0 | 0.00 | 0.00 | 0.00 | 76 | 1007.2 |
| 20260903061247 | 60 | 207 | 5.0 | 14.0 | 0.00 | 0.00 | 0.00 | 76 | 1007.2 |
| 20260903061211 | 60 | 180 | 4.0 | 14.0 | 0.00 | 0.00 | 0.00 | 76 | 1007.2 |
| 20260903061149 | 60 | 138 | 3.0 | 14.0 | 0.00 | 0.00 | 0.00 | 76 | 1007.2 |
| 20260903061116 | 60 | 251 | 4.0 | 14.0 | 0.00 | 0.00 | 0.00 | 76 | 1007.2 |
| 20260903060746 | 61 | 227 | 5.0 | 14.0 | 0.00 | 0.00 | 0.00 | 75 | 1007.2 |
| 20260903060644 | 61 | 180 | 6.0 | 14.0 | 0.00 | 0.00 | 0.00 | 75 | 1007.2 |
| 20260903060608 | 61 | 141 | 7.0 | 14.0 | 0.00 | 0.00 | 0.00 | 75 | 1007.2 |
| 20260903060533 | 61 | 192 | 7.0 | 13.0 | 0.00 | 0.00 | 0.00 | 75 | 1007.3 |
| 20260903060511 | 61 | 266 | 6.0 | 13.0 | 0.00 | 0.00 | 0.00 | 75 | 1007.2 |
| 20260903060141 | 61 | 246 | 4.0 | 16.0 | 0.00 | 0.00 | 0.00 | 75 | 1007.3 |
| 20260903060047 | 61 | 204 | 5.0 | 16.0 | 0.00 | 0.00 | 0.00 | 75 | 1007.2 |
| 20260903055940 | 61 | 186 | 7.0 | 16.0 | 0.00 | 0.00 | 0.00 | 75 | 1007.2 |
| 20260903055839 | 61 | 187 | 6.0 | 16.0 | 0.00 | 0.00 | 0.00 | 75 | 1007.3 |
| 20260903055803 | 61 | 193 | 4.0 | 16.0 | 0.00 | 0.00 | 0.00 | 75 | 1007.3 |
| 20260903055741 | 61 | 167 | 4.0 | 16.0 | 0.00 | 0.00 | 0.00 | 74 | 1007.3 |
| 20260903055719 | 61 | 226 | 5.0 | 16.0 | 0.00 | 0.00 | 0.00 | 74 | 1007.4 |
| 20260903055356 | 61 | 213 | 7.0 | 16.0 | 0.00 | 0.00 | 0.00 | 74 | 1007.3 |
| 20260903055334 | 61 | 153 | 8.0 | 16.0 | 0.00 | 0.00 | 0.00 | 74 | 1007.4 |
| 20260903055312 | 61 | 183 | 6.0 | 16.0 | 0.00 | 0.00 | 0.00 | 74 | 1007.4 |
| 20260903054933 | 61 | 197 | 4.0 | 16.0 | 0.00 | 0.00 | 0.00 | 74 | 1007.3 |
| 20260903054833 | 61 | 188 | 6.0 | 16.0 | 0.00 | 0.00 | 0.00 | 74 | 1007.3 |
| 20260903054733 | 61 | 167 | 7.0 | 16.0 | 0.00 | 0.00 | 0.00 | 74 | 1007.3 |
| 20260903054632 | 61 | 184 | 7.0 | 16.0 | 0.00 | 0.00 | 0.00 | 74 | 1007.3 |
| 20260903054541 | 61 | 205 | 7.0 | 16.0 | 0.00 | 0.00 | 0.00 | 74 | 1007.2 |
| 20260903054432 | 61 | 233 | 8.0 | 14.0 | 0.00 | 0.00 | 0.00 | 75 | 1007.3 |
| 20260903054332 | 61 | 140 | 7.0 | 14.0 | 0.00 | 0.00 | 0.00 | 75 | 1007.4 |
| 20260903054230 | 61 | 159 | 6.0 | 13.0 | 0.00 | 0.00 | 0.00 | 75 | 1007.3 |
| 20260903054129 | 61 | 198 | 5.0 | 13.0 | 0.00 | 0.00 | 0.00 | 75 | 1007.3 |
| 20260903054040 | 62 | 161 | 4.0 | 13.0 | 0.00 | 0.00 | 0.00 | 76 | 1007.3 |
| 20260903053930 | 62 | 186 | 5.0 | 13.0 | 0.00 | 0.00 | 0.00 | 75 | 1007.3 |
| 20260903053830 | 62 | 197 | 5.0 | 13.0 | 0.00 | 0.00 | 0.00 | 76 | 1007.3 |
| 20260903053729 | 62 | 201 | 4.0 | 13.0 | 0.00 | 0.00 | 0.00 | 76 | 1007.3 |
| 20260903053644 | 62 | 98 | 4.0 | 17.0 | 0.00 | 0.00 | 0.00 | 76 | 1007.3 |
| 20260903053621 | 62 | 241 | 5.0 | 17.0 | 0.00 | 0.00 | 0.00 | 76 | 1007.3 |
| 20260903053547 | 62 | 224 | 7.0 | 17.0 | 0.00 | 0.00 | 0.00 | 76 | 1007.3 |
| 20260903053523 | 62 | 153 | 7.0 | 17.0 | 0.00 | 0.00 | 0.00 | 76 | 1007.3 |
| 20260903053502 | 62 | 174 | 6.0 | 17.0 | 0.00 | 0.00 | 0.00 | 76 | 1007.3 |
| 20260903053209 | 62 | 155 | 4.0 | 17.0 | 0.00 | 0.00 | 0.00 | 75 | 1007.3 |
| 20260903053132 | 62 | 213 | 4.0 | 17.0 | 0.00 | 0.00 | 0.00 | 75 | 1007.3 |
| 20260903053110 | 62 | 217 | 5.0 | 17.0 | 0.00 | 0.00 | 0.00 | 75 | 1007.4 |
| 20260903053046 | 62 | 196 | 4.0 | 17.0 | 0.00 | 0.00 | 0.00 | 75 | 1007.3 |
| 20260903053025 | 62 | 169 | 4.0 | 10.0 | 0.00 | 0.00 | 0.00 | 75 | 1007.3 |
| 20260903053003 | 62 | 210 | 4.0 | 10.0 | 0.00 | 0.00 | 0.00 | 75 | 1007.3 |
| 20260903052929 | 62 | 161 | 4.0 | 10.0 | 0.00 | 0.00 | 0.00 | 75 | 1007.3 |
| 20260903052906 | 62 | 231 | 4.0 | 10.0 | 0.00 | 0.00 | 0.00 | 75 | 1007.4 |
| 20260903052847 | 62 | 233 | 5.0 | 10.0 | 0.00 | 0.00 | 0.00 | 74 | 1007.3 |
| 20260903052823 | 62 | 178 | 6.0 | 10.0 | 0.00 | 0.00 | 0.00 | 74 | 1007.3 |
| 20260903052802 | 62 | 162 | 6.0 | 10.0 | 0.00 | 0.00 | 0.00 | 74 | 1007.4 |
| 20260903052725 | 62 | 191 | 5.0 | 12.0 | 0.00 | 0.00 | 0.00 | 74 | 1007.3 |
| 20260903052208 | 62 | 251 | 4.0 | 13.0 | 0.00 | 0.00 | 0.00 | 74 | 1007.4 |
| 20260903052145 | 63 | 161 | 3.0 | 13.0 | 0.00 | 0.00 | 0.00 | 73 | 1007.3 |
| 20260903052107 | 62 | 187 | 3.0 | 13.0 | 0.00 | 0.00 | 0.00 | 73 | 1007.4 |
| 20260903051819 | 63 | 213 | 5.0 | 13.0 | 0.00 | 0.00 | 0.00 | 73 | 1007.4 |
| 20260903051530 | 63 | 186 | 4.0 | 13.0 | 0.00 | 0.00 | 0.00 | 72 | 1007.5 |
| 20260903051452 | 63 | 200 | 4.0 | 13.0 | 0.00 | 0.00 | 0.00 | 72 | 1007.4 |
| 20260903051200 | 63 | 126 | 3.0 | 10.0 | 0.00 | 0.00 | 0.00 | 72 | 1007.5 |
| 20260903050909 | 63 | 159 | 3.0 | 10.0 | 0.00 | 0.00 | 0.00 | 73 | 1007.5 |
| 20260903050833 | 63 | 238 | 4.0 | 10.0 | 0.00 | 0.00 | 0.00 | 72 | 1007.5 |
| 20260903050310 | 63 | 234 | 3.0 | 11.0 | 0.00 | 0.00 | 0.00 | 72 | 1007.5 |
| 20260903050250 | 63 | 165 | 2.0 | 11.0 | 0.00 | 0.00 | 0.00 | 72 | 1007.4 |
| 20260903050211 | 63 | 217 | 3.0 | 11.0 | 0.00 | 0.00 | 0.00 | 72 | 1007.4 |
| 20260903045919 | 63 | 119 | 4.0 | 11.0 | 0.00 | 0.00 | 0.00 | 72 | 1007.4 |
| 20260903045625 | 63 | 171 | 5.0 | 11.0 | 0.00 | 0.00 | 0.00 | 72 | 1007.4 |
| 20260903045551 | 63 | 220 | 4.0 | 11.0 | 0.00 | 0.00 | 0.00 | 72 | 1007.4 |
| 20260903045220 | 63 | 186 | 4.0 | 11.0 | 0.00 | 0.00 | 0.00 | 72 | 1007.4 |
| 20260903045118 | 63 | 161 | 4.0 | 11.0 | 0.00 | 0.00 | 0.00 | 72 | 1007.4 |
| 20260903045025 | 63 | 165 | 4.0 | 11.0 | 0.00 | 0.00 | 0.00 | 72 | 1007.5 |
| 20260903044917 | 63 | 153 | 4.0 | 11.0 | 0.00 | 0.00 | 0.00 | 72 | 1007.5 |
| 20260903044817 | 63 | 149 | 4.0 | 11.0 | 0.00 | 0.00 | 0.00 | 72 | 1007.4 |
| 20260903044710 | 63 | 146 | 4.0 | 11.0 | 0.00 | 0.00 | 0.00 | 72 | 1007.4 |
| 20260903044610 | 63 | 33 | 3.0 | 11.0 | 0.00 | 0.00 | 0.00 | 72 | 1007.4 |
| 20260903044518 | 63 | 90 | 3.0 | 11.0 | 0.00 | 0.00 | 0.00 | 72 | 1007.4 |
| 20260903044408 | 63 | 184 | 5.0 | 11.0 | 0.00 | 0.00 | 0.00 | 72 | 1007.4 |
| 20260903044308 | 63 | 179 | 5.0 | 11.0 | 0.00 | 0.00 | 0.00 | 72 | 1007.4 |
| 20260903044207 | 63 | 171 | 5.0 | 10.0 | 0.00 | 0.00 | 0.00 | 72 | 1007.4 |
| 20260903044106 | 63 | 188 | 5.0 | 10.0 | 0.00 | 0.00 | 0.00 | 72 | 1007.3 |
| 20260903044013 | 63 | 177 | 4.0 | 9.0 | 0.00 | 0.00 | 0.00 | 73 | 1007.4 |
| 20260903043905 | 63 | 148 | 3.0 | 8.0 | 0.00 | 0.00 | 0.00 | 73 | 1007.5 |
| 20260903043804 | 63 | 173 | 4.0 | 8.0 | 0.00 | 0.00 | 0.00 | 73 | 1007.4 |
| 20260903043704 | 63 | 93 | 4.0 | 8.0 | 0.00 | 0.00 | 0.00 | 73 | 1007.4 |
| 20260903043603 | 63 | 277 | 3.0 | 10.0 | 0.00 | 0.00 | 0.00 | 73 | 1007.4 |
| 20260903043507 | 63 | 144 | 3.0 | 10.0 | 0.00 | 0.00 | 0.00 | 73 | 1007.4 |
| 20260903043427 | 63 | 145 | 4.0 | 10.0 | 0.00 | 0.00 | 0.00 | 73 | 1007.4 |
| 20260903043403 | 63 | 178 | 3.0 | 10.0 | 0.00 | 0.00 | 0.00 | 73 | 1007.4 |
| 20260903043344 | 63 | 204 | 2.0 | 10.0 | 0.00 | 0.00 | 0.00 | 73 | 1007.4 |
| 20260903043323 | 63 | 150 | 2.0 | 10.0 | 0.00 | 0.00 | 0.00 | 73 | 1007.3 |
| 20260903043014 | 63 | 130 | 5.0 | 10.0 | 0.00 | 0.00 | 0.00 | 73 | 1007.3 |
| 20260903042953 | 63 | 178 | 4.0 | 10.0 | 0.00 | 0.00 | 0.00 | 73 | 1007.4 |
| 20260903042929 | 63 | 182 | 3.0 | 10.0 | 0.00 | 0.00 | 0.00 | 74 | 1007.4 |
| 20260903042908 | 63 | 178 | 3.0 | 6.0 | 0.00 | 0.00 | 0.00 | 74 | 1007.5 |
| 20260903042844 | 63 | 115 | 2.0 | 6.0 | 0.00 | 0.00 | 0.00 | 74 | 1007.4 |
| 20260903042809 | 63 | 176 | 1.0 | 7.0 | 0.00 | 0.00 | 0.00 | 74 | 1007.4 |
| 20260903042518 | 63 | 136 | 1.0 | 7.0 | 0.00 | 0.00 | 0.00 | 74 | 1007.4 |
| 20260903042228 | 63 | 165 | 2.0 | 7.0 | 0.00 | 0.00 | 0.00 | 74 | 1007.4 |
| 20260903041919 | 63 | 157 | 1.0 | 7.0 | 0.00 | 0.00 | 0.00 | 74 | 1007.3 |
| 20260903041853 | 63 | 136 | 2.0 | 7.0 | 0.00 | 0.00 | 0.00 | 74 | 1007.3 |
| 20260903041834 | 63 | 169 | 3.0 | 7.0 | 0.00 | 0.00 | 0.00 | 74 | 1007.3 |
| 20260903041812 | 63 | 277 | 2.0 | 7.0 | 0.00 | 0.00 | 0.00 | 74 | 1007.3 |
| 20260903041738 | 63 | 207 | 2.0 | 5.0 | 0.00 | 0.00 | 0.00 | 74 | 1007.3 |
| 20260903041716 | 63 | 279 | 2.0 | 4.0 | 0.00 | 0.00 | 0.00 | 74 | 1007.3 |
| 20260903041655 | 63 | 151 | 2.0 | 7.0 | 0.00 | 0.00 | 0.00 | 74 | 1007.3 |
| 20260903041404 | 63 | 265 | 0.0 | 9.0 | 0.00 | 0.00 | 0.00 | 74 | 1007.3 |
| 20260903041100 | 63 | 286 | 0.0 | 9.0 | 0.00 | 0.00 | 0.00 | 74 | 1007.3 |
| 20260903040457 | 63 | 286 | 3.0 | 9.0 | 0.00 | 0.00 | 0.00 | 73 | 1007.2 |
| 20260903040356 | 63 | 209 | 4.0 | 9.0 | 0.00 | 0.00 | 0.00 | 73 | 1007.2 |
| 20260903040255 | 63 | 156 | 4.0 | 9.0 | 0.00 | 0.00 | 0.00 | 73 | 1007.2 |
| 20260903040155 | 63 | 169 | 3.0 | 9.0 | 0.00 | 0.00 | 0.00 | 73 | 1007.3 |
| 20260903040124 | 63 | 123 | 3.0 | 9.0 | 0.00 | 0.00 | 0.00 | 73 | 1007.2 |
| 20260903040024 | 63 | 132 | 4.0 | 9.0 | 0.00 | 0.00 | 0.00 | 73 | 1007.3 |
| 20260903035729 | 64 | 215 | 4.0 | 9.0 | 0.00 | 0.00 | 0.00 | 73 | 1007.3 |
| 20260903035706 | 64 | 199 | 5.0 | 9.0 | 0.00 | 0.00 | 0.00 | 73 | 1007.3 |
| 20260903035645 | 64 | 154 | 4.0 | 9.0 | 0.00 | 0.00 | 0.00 | 72 | 1007.3 |
| 20260903035609 | 64 | 127 | 3.0 | 9.0 | 0.00 | 0.00 | 0.00 | 72 | 1007.3 |
| 20260903035317 | 64 | 151 | 2.0 | 9.0 | 0.00 | 0.00 | 0.00 | 72 | 1007.3 |
| 20260903034951 | 64 | 199 | 6.0 | 9.0 | 0.00 | 0.00 | 0.00 | 72 | 1007.3 |
| 20260903034844 | 64 | 248 | 4.0 | 9.0 | 0.00 | 0.00 | 0.00 | 72 | 1007.3 |
| 20260903034810 | 64 | 119 | 3.0 | 9.0 | 0.00 | 0.00 | 0.00 | 72 | 1007.3 |
| 20260903034745 | 64 | 178 | 2.0 | 9.0 | 0.00 | 0.00 | 0.00 | 72 | 1007.2 |
| 20260903034724 | 64 | 245 | 2.0 | 9.0 | 0.00 | 0.00 | 0.00 | 71 | 1007.3 |
| 20260903034702 | 64 | 254 | 2.0 | 9.0 | 0.00 | 0.00 | 0.00 | 71 | 1007.3 |
| 20260903034625 | 64 | 146 | 1.0 | 9.0 | 0.00 | 0.00 | 0.00 | 71 | 1007.2 |
| 20260903034603 | 64 | 277 | 2.0 | 9.0 | 0.00 | 0.00 | 0.00 | 71 | 1007.2 |
| 20260903034040 | 64 | 202 | 3.0 | 13.0 | 0.00 | 0.00 | 0.00 | 71 | 1007.1 |
| 20260903034002 | 64 | 227 | 2.0 | 13.0 | 0.00 | 0.00 | 0.00 | 71 | 1007.1 |
| 20260903033630 | 64 | 192 | 4.0 | 13.0 | 0.00 | 0.00 | 0.00 | 71 | 1007.1 |
| 20260903033530 | 64 | 168 | 3.0 | 13.0 | 0.00 | 0.00 | 0.00 | 71 | 1007.1 |
| 20260903033459 | 64 | 211 | 5.0 | 13.0 | 0.00 | 0.00 | 0.00 | 71 | 1007.1 |
| 20260903033421 | 64 | 281 | 5.0 | 13.0 | 0.00 | 0.00 | 0.00 | 71 | 1007.2 |
| 20260903033401 | 64 | 178 | 2.0 | 13.0 | 0.00 | 0.00 | 0.00 | 71 | 1007.1 |
| 20260903033029 | 64 | 185 | 3.0 | 13.0 | 0.00 | 0.00 | 0.00 | 71 | 1007.1 |
| 20260903032936 | 64 | 221 | 4.0 | 13.0 | 0.00 | 0.00 | 0.00 | 71 | 1007.1 |
| 20260903032827 | 64 | 171 | 5.0 | 13.0 | 0.00 | 0.00 | 0.00 | 71 | 1007.1 |
| 20260903032746 | 64 | 142 | 6.0 | 13.0 | 0.00 | 0.00 | 0.00 | 71 | 1007.2 |
| 20260903032723 | 64 | 169 | 6.0 | 10.0 | 0.00 | 0.00 | 0.00 | 71 | 1007.1 |
| 20260903032701 | 64 | 153 | 3.0 | 10.0 | 0.00 | 0.00 | 0.00 | 71 | 1007.1 |
| 20260903032325 | 64 | 228 | 5.0 | 10.0 | 0.00 | 0.00 | 0.00 | 71 | 1007.2 |
| 20260903032231 | 64 | 144 | 4.0 | 14.0 | 0.00 | 0.00 | 0.00 | 71 | 1007.1 |
| 20260903032207 | 64 | 234 | 5.0 | 14.0 | 0.00 | 0.00 | 0.00 | 70 | 1007.1 |
| 20260903032144 | 64 | 230 | 5.0 | 15.0 | 0.00 | 0.00 | 0.00 | 70 | 1007.1 |
| 20260903032122 | 64 | 177 | 3.0 | 15.0 | 0.00 | 0.00 | 0.00 | 70 | 1007.1 |
| 20260903032046 | 64 | 155 | 4.0 | 15.0 | 0.00 | 0.00 | 0.00 | 70 | 1006.9 |
| 20260903032020 | 64 | 195 | 2.0 | 15.0 | 0.00 | 0.00 | 0.00 | 70 | 1007.0 |
| 20260903031425 | 64 | 217 | 5.0 | 15.0 | 0.00 | 0.00 | 0.00 | 70 | 1007.0 |
| 20260903031323 | 64 | 156 | 6.0 | 15.0 | 0.00 | 0.00 | 0.00 | 69 | 1006.9 |
| 20260903031300 | 64 | 155 | 6.0 | 15.0 | 0.00 | 0.00 | 0.00 | 70 | 1007.0 |
| 20260903031238 | 64 | 181 | 6.0 | 15.0 | 0.00 | 0.00 | 0.00 | 69 | 1006.9 |
| 20260903031218 | 64 | 204 | 6.0 | 11.0 | 0.00 | 0.00 | 0.00 | 69 | 1006.9 |
| 20260903030908 | 64 | 175 | 3.0 | 11.0 | 0.00 | 0.00 | 0.00 | 70 | 1006.9 |
| 20260903030846 | 64 | 209 | 4.0 | 11.0 | 0.00 | 0.00 | 0.00 | 70 | 1006.8 |
| 20260903030515 | 64 | 240 | 2.0 | 10.0 | 0.00 | 0.00 | 0.00 | 70 | 1006.8 |
| 20260903030418 | 64 | 181 | 3.0 | 10.0 | 0.00 | 0.00 | 0.00 | 70 | 1006.8 |
| 20260903030316 | 64 | 192 | 3.0 | 10.0 | 0.00 | 0.00 | 0.00 | 70 | 1006.8 |
| 20260903030216 | 64 | 142 | 4.0 | 10.0 | 0.00 | 0.00 | 0.00 | 70 | 1006.8 |
| 20260903030115 | 64 | 216 | 4.0 | 10.0 | 0.00 | 0.00 | 0.00 | 70 | 1006.7 |
| 20260903030014 | 64 | 173 | 2.0 | 8.0 | 0.00 | 0.00 | 0.00 | 71 | 1006.7 |
| 20260903025920 | 64 | 316 | 3.0 | 8.0 | 0.00 | 0.00 | 0.00 | 71 | 1006.8 |
| 20260903025811 | 64 | 225 | 3.0 | 7.0 | 0.00 | 0.00 | 0.00 | 70 | 1006.7 |
| 20260903025729 | 64 | 185 | 3.0 | 14.0 | 0.00 | 0.00 | 0.00 | 70 | 1006.7 |
| 20260903025707 | 64 | 158 | 3.0 | 14.0 | 0.00 | 0.00 | 0.00 | 71 | 1006.8 |
| 20260903025645 | 64 | 223 | 3.0 | 14.0 | 0.00 | 0.00 | 0.00 | 71 | 1006.8 |
| 20260903025306 | 64 | 331 | 4.0 | 14.0 | 0.00 | 0.00 | 0.00 | 71 | 1006.8 |
| 20260903025205 | 64 | 184 | 4.0 | 14.0 | 0.00 | 0.00 | 0.00 | 71 | 1006.7 |
| 20260903025111 | 64 | 323 | 4.0 | 14.0 | 0.00 | 0.00 | 0.00 | 71 | 1006.7 |
| 20260903025048 | 64 | 182 | 5.0 | 14.0 | 0.00 | 0.00 | 0.00 | 71 | 1006.6 |
| 20260903025024 | 64 | 163 | 5.0 | 14.0 | 0.00 | 0.00 | 0.00 | 71 | 1006.7 |
| 20260903024948 | 64 | 166 | 4.0 | 14.0 | 0.00 | 0.00 | 0.00 | 71 | 1006.6 |
| 20260903024925 | 64 | 210 | 2.0 | 6.0 | 0.00 | 0.00 | 0.00 | 71 | 1006.7 |
| 20260903024903 | 64 | 178 | 2.0 | 6.0 | 0.00 | 0.00 | 0.00 | 71 | 1006.6 |
| 20260903024302 | 64 | 172 | 2.0 | 6.0 | 0.00 | 0.00 | 0.00 | 71 | 1006.7 |
| 20260903024224 | 64 | 262 | 2.0 | 6.0 | 0.00 | 0.00 | 0.00 | 71 | 1006.7 |
| 20260903024203 | 64 | 215 | 2.0 | 6.0 | 0.00 | 0.00 | 0.00 | 71 | 1006.7 |
| 20260903024141 | 64 | 219 | 3.0 | 6.0 | 0.00 | 0.00 | 0.00 | 71 | 1006.6 |
| 20260903024119 | 64 | 253 | 3.0 | 6.0 | 0.00 | 0.00 | 0.00 | 71 | 1006.7 |
| 20260903024045 | 64 | 146 | 1.0 | 7.0 | 0.00 | 0.00 | 0.00 | 71 | 1006.7 |
| 20260903023755 | 65 | 290 | 1.0 | 7.0 | 0.00 | 0.00 | 0.00 | 71 | 1006.7 |
| 20260903023734 | 65 | 167 | 2.0 | 7.0 | 0.00 | 0.00 | 0.00 | 70 | 1006.8 |
| 20260903023713 | 65 | 167 | 1.0 | 7.0 | 0.00 | 0.00 | 0.00 | 70 | 1006.7 |
| 20260903023100 | 65 | 150 | 3.0 | 9.0 | 0.00 | 0.00 | 0.00 | 70 | 1006.8 |
| 20260903022952 | 65 | 276 | 3.0 | 9.0 | 0.00 | 0.00 | 0.00 | 69 | 1006.9 |
| 20260903022858 | 65 | 187 | 2.0 | 9.0 | 0.00 | 0.00 | 0.00 | 69 | 1006.9 |
| 20260903022751 | 65 | 213 | 2.0 | 9.0 | 0.00 | 0.00 | 0.00 | 68 | 1006.8 |
| 20260903022707 | 65 | 195 | 2.0 | 9.0 | 0.00 | 0.00 | 0.00 | 68 | 1006.8 |
| 20260903022645 | 65 | 189 | 3.0 | 9.0 | 0.00 | 0.00 | 0.00 | 68 | 1006.8 |
| 20260903022623 | 65 | 209 | 5.0 | 9.0 | 0.00 | 0.00 | 0.00 | 67 | 1006.9 |
| 20260903022248 | 65 | 151 | 2.0 | 9.0 | 0.00 | 0.00 | 0.00 | 67 | 1006.8 |
| 20260903022148 | 65 | 165 | 3.0 | 7.0 | 0.00 | 0.00 | 0.00 | 67 | 1006.9 |
| 20260903022047 | 65 | 265 | 3.0 | 7.0 | 0.00 | 0.00 | 0.00 | 67 | 1006.9 |
| 20260903021946 | 65 | 192 | 2.0 | 7.0 | 0.00 | 0.00 | 0.00 | 66 | 1007.0 |
| 20260903021911 | 65 | 174 | 3.0 | 7.0 | 0.00 | 0.00 | 0.00 | 66 | 1006.9 |
| 20260903021835 | 65 | 254 | 3.0 | 7.0 | 0.00 | 0.00 | 0.00 | 66 | 1006.9 |
| 20260903021814 | 66 | 202 | 3.0 | 7.0 | 0.00 | 0.00 | 0.00 | 66 | 1006.9 |
| 20260903021443 | 66 | 205 | 3.0 | 7.0 | 0.00 | 0.00 | 0.00 | 66 | 1006.9 |
| 20260903021359 | 66 | 209 | 3.0 | 7.0 | 0.00 | 0.00 | 0.00 | 65 | 1006.9 |
| 20260903021322 | 66 | 223 | 3.0 | 7.0 | 0.00 | 0.00 | 0.00 | 65 | 1006.9 |
| 20260903021300 | 66 | 259 | 3.0 | 7.0 | 0.00 | 0.00 | 0.00 | 65 | 1006.9 |
| 20260903021238 | 66 | 221 | 3.0 | 16.0 | 0.00 | 0.00 | 0.00 | 65 | 1006.9 |
| 20260903020944 | 66 | 250 | 2.0 | 16.0 | 0.00 | 0.00 | 0.00 | 64 | 1006.9 |
| 20260903020911 | 66 | 211 | 2.0 | 16.0 | 0.00 | 0.00 | 0.00 | 64 | 1006.8 |
| 20260903020607 | 66 | 207 | 4.0 | 16.0 | 0.00 | 0.00 | 0.00 | 63 | 1006.8 |
| 20260903020543 | 66 | 183 | 4.0 | 16.0 | 0.00 | 0.00 | 0.00 | 63 | 1006.8 |
| 20260903020524 | 66 | 245 | 5.0 | 16.0 | 0.00 | 0.00 | 0.00 | 63 | 1006.8 |
| 20260903020138 | 66 | 253 | 3.0 | 16.0 | 0.00 | 0.00 | 0.00 | 62 | 1006.8 |
| 20260903020037 | 66 | 201 | 3.0 | 14.0 | 0.00 | 0.00 | 0.00 | 63 | 1006.8 |
| 20260903015936 | 66 | 211 | 3.0 | 14.0 | 0.00 | 0.00 | 0.00 | 62 | 1006.8 |
| 20260903015845 | 66 | 150 | 2.0 | 14.0 | 0.00 | 0.00 | 0.00 | 62 | 1006.8 |
| 20260903015734 | 66 | 215 | 5.0 | 14.0 | 0.00 | 0.00 | 0.00 | 62 | 1006.7 |
| 20260903015634 | 66 | 200 | 5.0 | 14.0 | 0.00 | 0.00 | 0.00 | 62 | 1006.7 |
| 20260903015533 | 66 | 203 | 4.0 | 14.0 | 0.00 | 0.00 | 0.00 | 62 | 1006.8 |
| 20260903015432 | 67 | 234 | 3.0 | 9.0 | 0.00 | 0.00 | 0.00 | 62 | 1006.8 |
| 20260903015341 | 67 | 211 | 4.0 | 7.0 | 0.00 | 0.00 | 0.00 | 62 | 1006.8 |
| 20260903015242 | 67 | 233 | 4.0 | 7.0 | 0.00 | 0.00 | 0.00 | 61 | 1006.8 |
| 20260903015221 | 67 | 232 | 4.0 | 7.0 | 0.00 | 0.00 | 0.00 | 61 | 1006.7 |
| 20260903015159 | 67 | 182 | 4.0 | 10.0 | 0.00 | 0.00 | 0.00 | 61 | 1006.7 |
| 20260903014837 | 67 | 180 | 4.0 | 10.0 | 0.00 | 0.00 | 0.00 | 61 | 1006.7 |
| 20260903014729 | 66 | 158 | 4.0 | 10.0 | 0.00 | 0.00 | 0.00 | 61 | 1006.7 |
| 20260903014629 | 67 | 234 | 2.0 | 10.0 | 0.00 | 0.00 | 0.00 | 61 | 1006.7 |
| 20260903014559 | 67 | 265 | 2.0 | 10.0 | 0.00 | 0.00 | 0.00 | 61 | 1006.7 |
| 20260903014535 | 67 | 214 | 3.0 | 10.0 | 0.00 | 0.00 | 0.00 | 61 | 1006.7 |
| 20260903014514 | 67 | 221 | 3.0 | 10.0 | 0.00 | 0.00 | 0.00 | 61 | 1006.7 |
| 20260903014128 | 67 | 183 | 4.0 | 10.0 | 0.00 | 0.00 | 0.00 | 61 | 1006.7 |
| 20260903014028 | 67 | 238 | 4.0 | 12.0 | 0.00 | 0.00 | 0.00 | 61 | 1006.6 |
| 20260903013927 | 67 | 194 | 4.0 | 12.0 | 0.00 | 0.00 | 0.00 | 61 | 1006.6 |
| 20260903013830 | 67 | 179 | 4.0 | 12.0 | 0.00 | 0.00 | 0.00 | 61 | 1006.6 |
| 20260903013727 | 67 | 246 | 4.0 | 12.0 | 0.00 | 0.00 | 0.00 | 61 | 1006.6 |
| 20260903013627 | 67 | 144 | 4.0 | 12.0 | 0.00 | 0.00 | 0.00 | 61 | 1006.6 |
| 20260903013524 | 67 | 102 | 4.0 | 12.0 | 0.00 | 0.00 | 0.00 | 61 | 1006.6 |
| 20260903013438 | 67 | 288 | 4.0 | 12.0 | 0.00 | 0.00 | 0.00 | 61 | 1006.5 |
| 20260903013415 | 67 | 238 | 5.0 | 12.0 | 0.00 | 0.00 | 0.00 | 60 | 1006.5 |
| 20260903013340 | 67 | 246 | 5.0 | 12.0 | 0.00 | 0.00 | 0.00 | 60 | 1006.5 |
| 20260903013320 | 67 | 274 | 6.0 | 12.0 | 0.00 | 0.00 | 0.00 | 60 | 1006.5 |
| 20260903013027 | 67 | 200 | 4.0 | 15.0 | 0.00 | 0.00 | 0.00 | 60 | 1006.5 |
| 20260903013005 | 67 | 229 | 3.0 | 15.0 | 0.00 | 0.00 | 0.00 | 60 | 1006.5 |
| 20260903012657 | 67 | 215 | 4.0 | 15.0 | 0.00 | 0.00 | 0.00 | 60 | 1006.5 |
| 20260903012637 | 67 | 161 | 4.0 | 15.0 | 0.00 | 0.00 | 0.00 | 60 | 1006.4 |
| 20260903012615 | 67 | 262 | 5.0 | 15.0 | 0.00 | 0.00 | 0.00 | 60 | 1006.4 |
| 20260903012307 | 67 | 292 | 4.0 | 15.0 | 0.00 | 0.00 | 0.00 | 60 | 1006.4 |
| 20260903012247 | 67 | 270 | 5.0 | 15.0 | 0.00 | 0.00 | 0.00 | 60 | 1006.5 |
| 20260903011915 | 67 | 202 | 5.0 | 13.0 | 0.00 | 0.00 | 0.00 | 59 | 1006.4 |
| 20260903011848 | 67 | 223 | 5.0 | 13.0 | 0.00 | 0.00 | 0.00 | 59 | 1006.4 |
| 20260903011809 | 67 | 229 | 5.0 | 13.0 | 0.00 | 0.00 | 0.00 | 59 | 1006.4 |
| 20260903011748 | 67 | 167 | 3.0 | 12.0 | 0.00 | 0.00 | 0.00 | 59 | 1006.4 |
| 20260903011728 | 67 | 192 | 4.0 | 12.0 | 0.00 | 0.00 | 0.00 | 59 | 1006.4 |
| 20260903011434 | 67 | 207 | 4.0 | 12.0 | 0.00 | 0.00 | 0.00 | 59 | 1006.4 |
| 20260903011359 | 67 | 225 | 5.0 | 12.0 | 0.00 | 0.00 | 0.00 | 59 | 1006.3 |
| 20260903011107 | 67 | 224 | 5.0 | 12.0 | 0.00 | 0.00 | 0.00 | 58 | 1006.4 |
| 20260903011047 | 67 | 183 | 5.0 | 12.0 | 0.00 | 0.00 | 0.00 | 58 | 1006.3 |
| 20260903010711 | 67 | 174 | 6.0 | 11.0 | 0.00 | 0.00 | 0.00 | 58 | 1006.3 |
| 20260903010610 | 68 | 194 | 4.0 | 13.0 | 0.00 | 0.00 | 0.00 | 58 | 1006.4 |
| 20260903010507 | 68 | 290 | 2.0 | 13.0 | 0.00 | 0.00 | 0.00 | 58 | 1006.3 |
| 20260903010406 | 68 | 147 | 3.0 | 13.0 | 0.00 | 0.00 | 0.00 | 58 | 1006.4 |
| 20260903010315 | 68 | 196 | 3.0 | 13.0 | 0.00 | 0.00 | 0.00 | 58 | 1006.3 |
| 20260903010206 | 68 | 181 | 4.0 | 13.0 | 0.00 | 0.00 | 0.00 | 58 | 1006.3 |
| 20260903010105 | 68 | 240 | 4.0 | 13.0 | 0.00 | 0.00 | 0.00 | 58 | 1006.4 |
| 20260903010002 | 68 | 252 | 3.0 | 13.0 | 0.00 | 0.00 | 0.00 | 57 | 1006.3 |
| 20260903005901 | 68 | 196 | 3.0 | 13.0 | 0.00 | 0.00 | 0.00 | 57 | 1006.3 |
| 20260903005829 | 68 | 190 | 2.0 | 17.0 | 0.00 | 0.00 | 0.00 | 57 | 1006.3 |
| 20260903005751 | 68 | 282 | 2.0 | 17.0 | 0.00 | 0.00 | 0.00 | 57 | 1006.3 |
| 20260903005731 | 68 | 188 | 3.0 | 17.0 | 0.00 | 0.00 | 0.00 | 57 | 1006.3 |
| 20260903005401 | 68 | 241 | 3.0 | 17.0 | 0.00 | 0.00 | 0.00 | 57 | 1006.3 |
| 20260903005309 | 68 | 171 | 4.0 | 17.0 | 0.00 | 0.00 | 0.00 | 57 | 1006.3 |
| 20260903005200 | 68 | 168 | 5.0 | 17.0 | 0.00 | 0.00 | 0.00 | 57 | 1006.3 |
| 20260903005101 | 68 | 242 | 5.0 | 17.0 | 0.00 | 0.00 | 0.00 | 57 | 1006.3 |
| 20260903005031 | 68 | 247 | 6.0 | 17.0 | 0.00 | 0.00 | 0.00 | 57 | 1006.3 |
| 20260903005009 | 68 | 205 | 7.0 | 17.0 | 0.00 | 0.00 | 0.00 | 57 | 1006.4 |
| 20260903004947 | 68 | 219 | 7.0 | 15.0 | 0.00 | 0.00 | 0.00 | 57 | 1006.4 |
| 20260903004640 | 68 | 214 | 4.0 | 15.0 | 0.00 | 0.00 | 0.00 | 57 | 1006.3 |
| 20260903004618 | 68 | 141 | 4.0 | 15.0 | 0.00 | 0.00 | 0.00 | 57 | 1006.3 |
| 20260903004557 | 68 | 186 | 4.0 | 15.0 | 0.00 | 0.00 | 0.00 | 57 | 1006.4 |
| 20260903004536 | 68 | 196 | 5.0 | 15.0 | 0.00 | 0.00 | 0.00 | 57 | 1006.4 |
| 20260903004459 | 68 | 212 | 5.0 | 15.0 | 0.00 | 0.00 | 0.00 | 57 | 1006.3 |
| 20260903003904 | 68 | 252 | 6.0 | 15.0 | 0.00 | 0.00 | 0.00 | 57 | 1006.4 |
| 20260903003802 | 68 | 219 | 5.0 | 15.0 | 0.00 | 0.00 | 0.00 | 57 | 1006.5 |
| 20260903003701 | 68 | 236 | 5.0 | 15.0 | 0.00 | 0.00 | 0.00 | 57 | 1006.4 |
| 20260903003600 | 68 | 207 | 6.0 | 14.0 | 0.00 | 0.00 | 0.00 | 57 | 1006.3 |
| 20260903003500 | 68 | 215 | 6.0 | 14.0 | 0.00 | 0.00 | 0.00 | 57 | 1006.4 |
| 20260903003400 | 67 | 260 | 4.0 | 14.0 | 0.00 | 0.00 | 0.00 | 58 | 1006.4 |
| 20260903003259 | 67 | 183 | 4.0 | 14.0 | 0.00 | 0.00 | 0.00 | 58 | 1006.4 |
| 20260903003158 | 67 | 221 | 4.0 | 14.0 | 0.00 | 0.00 | 0.00 | 58 | 1006.5 |
| 20260903003110 | 67 | 200 | 5.0 | 14.0 | 0.00 | 0.00 | 0.00 | 58 | 1006.4 |
| 20260903003047 | 67 | 265 | 4.0 | 14.0 | 0.00 | 0.00 | 0.00 | 59 | 1006.4 |
| 20260903003027 | 67 | 254 | 3.0 | 14.0 | 0.00 | 0.00 | 0.00 | 59 | 1006.4 |
| 20260903002708 | 67 | 248 | 4.0 | 12.0 | 0.00 | 0.00 | 0.00 | 59 | 1006.5 |
| 20260903002645 | 67 | 248 | 4.0 | 12.0 | 0.00 | 0.00 | 0.00 | 59 | 1006.4 |
| 20260903002625 | 67 | 200 | 4.0 | 15.0 | 0.00 | 0.00 | 0.00 | 59 | 1006.3 |
| 20260903002255 | 68 | 220 | 3.0 | 15.0 | 0.00 | 0.00 | 0.00 | 59 | 1006.4 |
| 20260903002151 | 68 | 178 | 4.0 | 15.0 | 0.00 | 0.00 | 0.00 | 59 | 1006.4 |
| 20260903002051 | 68 | 228 | 5.0 | 15.0 | 0.00 | 0.00 | 0.00 | 59 | 1006.4 |
| 20260903001950 | 68 | 237 | 5.0 | 15.0 | 0.00 | 0.00 | 0.00 | 59 | 1006.4 |
| 20260903001850 | 68 | 151 | 4.0 | 15.0 | 0.00 | 0.00 | 0.00 | 58 | 1006.4 |
| 20260903001750 | 68 | 223 | 4.0 | 15.0 | 0.00 | 0.00 | 0.00 | 58 | 1006.3 |
| 20260903001648 | 68 | 293 | 5.0 | 15.0 | 0.00 | 0.00 | 0.00 | 58 | 1006.4 |
| 20260903001602 | 68 | 193 | 5.0 | 15.0 | 0.00 | 0.00 | 0.00 | 57 | 1006.4 |
| 20260903001540 | 68 | 270 | 4.0 | 12.0 | 0.00 | 0.00 | 0.00 | 57 | 1006.4 |
| 20260903001521 | 68 | 207 | 5.0 | 12.0 | 0.00 | 0.00 | 0.00 | 57 | 1006.4 |
| 20260903001145 | 68 | 257 | 5.0 | 12.0 | 0.00 | 0.00 | 0.00 | 56 | 1006.4 |
| 20260903001045 | 68 | 175 | 5.0 | 10.0 | 0.00 | 0.00 | 0.00 | 56 | 1006.4 |
| 20260903000945 | 69 | 238 | 4.0 | 10.0 | 0.00 | 0.00 | 0.00 | 56 | 1006.4 |
| 20260903000843 | 69 | 263 | 3.0 | 10.0 | 0.00 | 0.00 | 0.00 | 55 | 1006.3 |
| 20260903000750 | 69 | 240 | 3.0 | 10.0 | 0.00 | 0.00 | 0.00 | 55 | 1006.4 |
| 20260903000642 | 69 | 196 | 3.0 | 10.0 | 0.00 | 0.00 | 0.00 | 55 | 1006.3 |
| 20260903000541 | 69 | 280 | 3.0 | 10.0 | 0.00 | 0.00 | 0.00 | 55 | 1006.3 |
| 20260903000441 | 69 | 230 | 4.0 | 10.0 | 0.00 | 0.00 | 0.00 | 55 | 1006.3 |
| 20260903000341 | 69 | 338 | 4.0 | 11.0 | 0.00 | 0.00 | 0.00 | 54 | 1006.3 |
| 20260903000249 | 69 | 123 | 4.0 | 13.0 | 0.00 | 0.00 | 0.00 | 54 | 1006.3 |
| 20260903000139 | 69 | 244 | 4.0 | 13.0 | 0.00 | 0.00 | 0.00 | 54 | 1006.3 |
| 20260903000039 | 69 | 240 | 3.0 | 13.0 | 0.00 | 0.00 | 0.00 | 54 | 1006.3 |
| 20260902235938 | 69 | 198 | 3.0 | 13.0 | 0.00 | 0.00 | 0.00 | 54 | 1006.2 |
| 20260902235837 | 69 | 217 | 3.0 | 13.0 | 0.00 | 0.00 | 0.00 | 53 | 1006.3 |
| 20260902235743 | 69 | 253 | 3.0 | 13.0 | 0.00 | 0.00 | 0.00 | 53 | 1006.2 |
| 20260902235638 | 69 | 259 | 4.0 | 13.0 | 0.00 | 0.00 | 0.00 | 53 | 1006.2 |
| 20260902235611 | 69 | 287 | 6.0 | 13.0 | 0.00 | 0.00 | 0.00 | 53 | 1006.3 |
| 20260902235549 | 69 | 213 | 6.0 | 13.0 | 0.00 | 0.00 | 0.00 | 53 | 1006.2 |
| 20260902235528 | 69 | 150 | 5.0 | 13.0 | 0.00 | 0.00 | 0.00 | 53 | 1006.1 |
| 20260902235220 | 69 | 236 | 4.0 | 13.0 | 0.00 | 0.00 | 0.00 | 52 | 1006.2 |
| 20260902235158 | 70 | 213 | 5.0 | 13.0 | 0.00 | 0.00 | 0.00 | 52 | 1006.3 |
| 20260902235137 | 70 | 215 | 6.0 | 13.0 | 0.00 | 0.00 | 0.00 | 52 | 1006.2 |
| 20260902235116 | 70 | 164 | 6.0 | 13.0 | 0.00 | 0.00 | 0.00 | 51 | 1006.2 |
| 20260902234810 | 70 | 269 | 3.0 | 13.0 | 0.00 | 0.00 | 0.00 | 51 | 1006.3 |
| 20260902234749 | 70 | 184 | 4.0 | 13.0 | 0.00 | 0.00 | 0.00 | 51 | 1006.1 |
| 20260902234456 | 70 | 259 | 4.0 | 13.0 | 0.00 | 0.00 | 0.00 | 51 | 1006.2 |
| 20260902234435 | 70 | 172 | 5.0 | 13.0 | 0.00 | 0.00 | 0.00 | 50 | 1006.2 |
| 20260902234401 | 70 | 143 | 5.0 | 12.0 | 0.00 | 0.00 | 0.00 | 50 | 1006.1 |
| 20260902234341 | 70 | 302 | 5.0 | 12.0 | 0.00 | 0.00 | 0.00 | 50 | 1006.2 |
| 20260902234319 | 70 | 254 | 4.0 | 12.0 | 0.00 | 0.00 | 0.00 | 50 | 1006.2 |
| 20260902234259 | 70 | 194 | 4.0 | 14.0 | 0.00 | 0.00 | 0.00 | 50 | 1006.1 |
| 20260902233722 | 70 | 208 | 5.0 | 15.0 | 0.00 | 0.00 | 0.00 | 50 | 1006.0 |
| 20260902233431 | 70 | 163 | 5.0 | 15.0 | 0.00 | 0.00 | 0.00 | 51 | 1006.0 |
| 20260902233410 | 70 | 218 | 5.0 | 15.0 | 0.00 | 0.00 | 0.00 | 52 | 1006.0 |
| 20260902233333 | 70 | 263 | 6.0 | 15.0 | 0.00 | 0.00 | 0.00 | 52 | 1005.9 |
| 20260902233312 | 70 | 252 | 6.0 | 15.0 | 0.00 | 0.00 | 0.00 | 52 | 1006.0 |
| 20260902233251 | 70 | 261 | 7.0 | 15.0 | 0.00 | 0.00 | 0.00 | 51 | 1005.9 |
| 20260902233230 | 70 | 232 | 10.0 | 15.0 | 0.00 | 0.00 | 0.00 | 52 | 1005.9 |
| 20260902233209 | 70 | 271 | 9.0 | 15.0 | 0.00 | 0.00 | 0.00 | 51 | 1006.0 |
| 20260902232329 | 70 | 254 | 6.0 | 15.0 | 0.00 | 0.00 | 0.00 | 53 | 1006.0 |
| 20260902232229 | 70 | 275 | 6.0 | 16.0 | 0.00 | 0.00 | 0.00 | 53 | 1006.0 |
| 20260902232129 | 70 | 278 | 6.0 | 16.0 | 0.00 | 0.00 | 0.00 | 53 | 1006.0 |
| 20260902232029 | 70 | 261 | 7.0 | 16.0 | 0.00 | 0.00 | 0.00 | 53 | 1006.0 |
| 20260902231958 | 70 | 232 | 7.0 | 16.0 | 0.00 | 0.00 | 0.00 | 53 | 1006.0 |
| 20260902231936 | 70 | 314 | 4.0 | 16.0 | 0.00 | 0.00 | 0.00 | 54 | 1006.1 |
| 20260902231914 | 70 | 237 | 5.0 | 16.0 | 0.00 | 0.00 | 0.00 | 54 | 1006.0 |
| 20260902231529 | 70 | 254 | 7.0 | 16.0 | 0.00 | 0.00 | 0.00 | 54 | 1006.0 |
| 20260902231429 | 70 | 286 | 7.0 | 16.0 | 0.00 | 0.00 | 0.00 | 54 | 1006.0 |
| 20260902231328 | 70 | 243 | 6.0 | 17.0 | 0.00 | 0.00 | 0.00 | 55 | 1006.1 |
| 20260902231229 | 70 | 221 | 5.0 | 17.0 | 0.00 | 0.00 | 0.00 | 56 | 1006.2 |
| 20260902231129 | 70 | 248 | 7.0 | 17.0 | 0.00 | 0.00 | 0.00 | 56 | 1006.2 |
| 20260902231108 | 70 | 163 | 8.0 | 17.0 | 0.00 | 0.00 | 0.00 | 56 | 1006.1 |
| 20260902231046 | 70 | 257 | 7.0 | 17.0 | 0.00 | 0.00 | 0.00 | 56 | 1006.1 |
| 20260902231026 | 69 | 247 | 5.0 | 17.0 | 0.00 | 0.00 | 0.00 | 56 | 1006.1 |
| 20260902231005 | 69 | 254 | 4.0 | 17.0 | 0.00 | 0.00 | 0.00 | 57 | 1006.1 |
| 20260902230928 | 69 | 144 | 7.0 | 17.0 | 0.00 | 0.00 | 0.00 | 57 | 1006.1 |
| 20260902230329 | 69 | 290 | 7.0 | 16.0 | 0.00 | 0.00 | 0.00 | 58 | 1006.1 |
| 20260902230229 | 69 | 268 | 5.0 | 16.0 | 0.00 | 0.00 | 0.00 | 59 | 1006.0 |
| 20260902230129 | 69 | 284 | 5.0 | 18.0 | 0.00 | 0.00 | 0.00 | 59 | 1006.0 |
| 20260902230028 | 69 | 168 | 5.0 | 18.0 | 0.00 | 0.00 | 0.00 | 59 | 1005.9 |
| 20260902225927 | 69 | 242 | 2.0 | 18.0 | 0.00 | 0.00 | 0.00 | 60 | 1006.0 |
| 20260902225827 | 69 | 188 | 3.0 | 18.0 | 0.00 | 0.00 | 0.00 | 60 | 1005.9 |
| 20260902225727 | 69 | 240 | 6.0 | 18.0 | 0.00 | 0.00 | 0.00 | 61 | 1005.9 |
| 20260902225626 | 69 | 122 | 7.0 | 22.0 | 0.00 | 0.00 | 0.00 | 61 | 1005.9 |
| 20260902225525 | 69 | 247 | 6.0 | 22.0 | 0.00 | 0.00 | 0.00 | 61 | 1005.9 |
| 20260902225425 | 69 | 264 | 7.0 | 22.0 | 0.00 | 0.00 | 0.00 | 61 | 1006.0 |
| 20260902225324 | 69 | 262 | 9.0 | 22.0 | 0.00 | 0.00 | 0.00 | 61 | 1006.0 |
| 20260902225229 | 69 | 143 | 9.0 | 22.0 | 0.00 | 0.00 | 0.00 | 61 | 1006.0 |
| 20260902225153 | 69 | 273 | 8.0 | 22.0 | 0.00 | 0.00 | 0.00 | 61 | 1006.0 |
| 20260902225130 | 69 | 283 | 7.0 | 22.0 | 0.00 | 0.00 | 0.00 | 61 | 1006.1 |
| 20260902225109 | 69 | 269 | 5.0 | 22.0 | 0.00 | 0.00 | 0.00 | 61 | 1006.2 |
| 20260902225049 | 69 | 275 | 7.0 | 22.0 | 0.00 | 0.00 | 0.00 | 61 | 1006.2 |
| 20260902224741 | 69 | 178 | 8.0 | 22.0 | 0.00 | 0.00 | 0.00 | 61 | 1006.0 |
| 20260902224722 | 69 | 136 | 9.0 | 22.0 | 0.00 | 0.00 | 0.00 | 61 | 1006.1 |
| 20260902224700 | 69 | 175 | 9.0 | 22.0 | 0.00 | 0.00 | 0.00 | 61 | 1006.0 |
| 20260902224637 | 69 | 262 | 7.0 | 20.0 | 0.00 | 0.00 | 0.00 | 61 | 1006.0 |
| 20260902224334 | 69 | 279 | 6.0 | 22.0 | 0.00 | 0.00 | 0.00 | 61 | 1006.0 |
| 20260902224046 | 69 | 263 | 7.0 | 22.0 | 0.00 | 0.00 | 0.00 | 60 | 1006.1 |
| 20260902223717 | 70 | 263 | 6.0 | 22.0 | 0.00 | 0.00 | 0.00 | 59 | 1006.1 |
| 20260902223614 | 70 | 263 | 6.0 | 22.0 | 0.00 | 0.00 | 0.00 | 58 | 1006.1 |
| 20260902223513 | 70 | 164 | 6.0 | 22.0 | 0.00 | 0.00 | 0.00 | 58 | 1006.0 |
| 20260902223412 | 71 | 237 | 7.0 | 22.0 | 0.00 | 0.00 | 0.00 | 57 | 1005.9 |
| 20260902223312 | 71 | 287 | 9.0 | 22.0 | 0.00 | 0.00 | 0.00 | 56 | 1005.8 |
| 20260902223212 | 72 | 186 | 8.0 | 22.0 | 0.00 | 0.00 | 0.00 | 54 | 1005.8 |
| 20260902223112 | 73 | 252 | 6.0 | 13.0 | 0.00 | 0.00 | 0.00 | 53 | 1006.1 |
| 20260902223013 | 74 | 180 | 6.0 | 13.0 | 0.00 | 0.00 | 0.00 | 51 | 1006.1 |
| 20260902222937 | 75 | 184 | 8.0 | 13.0 | 0.00 | 0.00 | 0.00 | 48 | 1006.1 |
| 20260902222914 | 75 | 221 | 7.0 | 13.0 | 0.00 | 0.00 | 0.00 | 46 | 1006.3 |
| 20260902222853 | 76 | 222 | 3.0 | 9.0 | 0.00 | 0.00 | 0.00 | 45 | 1006.2 |
| 20260902222509 | 76 | 217 | 2.0 | 4.0 | 0.00 | 0.00 | 0.00 | 44 | 1005.6 |
| 20260902222432 | 76 | 229 | 2.0 | 4.0 | 0.00 | 0.00 | 0.00 | 44 | 1005.4 |
| 20260902222410 | 76 | 175 | 2.0 | 4.0 | 0.00 | 0.00 | 0.00 | 43 | 1005.3 |
| 20260902222350 | 76 | 186 | 2.0 | 4.0 | 0.00 | 0.00 | 0.00 | 43 | 1005.2 |
| 20260902222005 | 76 | 123 | 1.0 | 4.0 | 0.00 | 0.00 | 0.00 | 44 | 1005.1 |
| 20260902221905 | 76 | 152 | 1.0 | 2.0 | 0.00 | 0.00 | 0.00 | 44 | 1005.0 |
| 20260902221806 | 76 | 171 | 1.0 | 2.0 | 0.00 | 0.00 | 0.00 | 43 | 1005.0 |
| 20260902221704 | 76 | 153 | 1.0 | 2.0 | 0.00 | 0.00 | 0.00 | 44 | 1004.9 |
| 20260902221603 | 76 | 111 | 1.0 | 2.0 | 0.00 | 0.00 | 0.00 | 46 | 1004.9 |
| 20260902221501 | 76 | 48 | 1.0 | 2.0 | 0.00 | 0.00 | 0.00 | 43 | 1005.0 |
| 20260902221403 | 76 | 117 | 0.0 | 2.0 | 0.00 | 0.00 | 0.00 | 43 | 1004.9 |
| 20260902221301 | 76 | 72 | 0.0 | 2.0 | 0.00 | 0.00 | 0.00 | 46 | 1004.9 |
| 20260902221204 | 76 | 9 | 0.0 | 2.0 | 0.00 | 0.00 | 0.00 | 44 | 1004.9 |
| 20260902221102 | 76 | 9 | 0.0 | 2.0 | 0.00 | 0.00 | 0.00 | 44 | 1004.8 |
| 20260902221004 | 76 | 9 | 0.0 | 2.0 | 0.00 | 0.00 | 0.00 | 44 | 1004.8 |
| 20260902220901 | 76 | 9 | 0.0 | 2.0 | 0.00 | 0.00 | 0.00 | 44 | 1004.8 |
| 20260902220802 | 76 | 9 | 1.0 | 2.0 | 0.00 | 0.00 | 0.00 | 44 | 1004.8 |
| 20260902220701 | 76 | 5 | 1.0 | 2.0 | 0.00 | 0.00 | 0.00 | 43 | 1004.7 |
| 20260902220600 | 76 | 5 | 1.0 | 2.0 | 0.00 | 0.00 | 0.00 | 44 | 1004.8 |
| 20260902220501 | 76 | 5 | 1.0 | 3.0 | 0.00 | 0.00 | 0.00 | 44 | 1004.8 |
| 20260902220401 | 76 | 5 | 1.0 | 3.0 | 0.00 | 0.00 | 0.00 | 45 | 1004.8 |
| 20260902220300 | 76 | 0 | 1.0 | 3.0 | 0.00 | 0.00 | 0.00 | 44 | 1004.8 |
| 20260902220227 | 76 | 15 | 0.0 | 3.0 | 0.00 | 0.00 | 0.00 | 44 | 1004.8 |
| 20260902220147 | 76 | 315 | 0.0 | 3.0 | 0.00 | 0.00 | 0.00 | 44 | 1004.8 |
| 20260902220129 | 76 | 69 | 1.0 | 3.0 | 0.00 | 0.00 | 0.00 | 44 | 1004.8 |
| 20260902215801 | 76 | 61 | 1.0 | 3.0 | 0.00 | 0.00 | 0.00 | 44 | 1004.8 |
| 20260902215701 | 76 | 58 | 1.0 | 3.0 | 0.00 | 0.00 | 0.00 | 45 | 1004.8 |
| 20260902215603 | 76 | 56 | 1.0 | 3.0 | 0.00 | 0.00 | 0.00 | 44 | 1004.7 |
| 20260902215502 | 76 | 57 | 1.0 | 3.0 | 0.00 | 0.00 | 0.00 | 45 | 1004.8 |
| 20260902215402 | 76 | 33 | 2.0 | 3.0 | 0.00 | 0.00 | 0.00 | 44 | 1004.8 |
| 20260902215302 | 76 | 53 | 1.0 | 3.0 | 0.00 | 0.00 | 0.00 | 44 | 1004.8 |
| 20260902215201 | 76 | 66 | 1.0 | 3.0 | 0.00 | 0.00 | 0.00 | 44 | 1004.8 |
| 20260902215102 | 76 | 125 | 1.0 | 2.0 | 0.00 | 0.00 | 0.00 | 43 | 1004.8 |
| 20260902215002 | 76 | 125 | 1.0 | 3.0 | 0.00 | 0.00 | 0.00 | 44 | 1004.8 |
| 20260902214858 | 76 | 51 | 1.0 | 3.0 | 0.00 | 0.00 | 0.00 | 44 | 1004.8 |
| 20260902214753 | 76 | 51 | 1.0 | 3.0 | 0.00 | 0.00 | 0.00 | 44 | 1004.9 |
| 20260902214653 | 76 | 68 | 1.0 | 5.0 | 0.00 | 0.00 | 0.00 | 44 | 1004.9 |
| 20260902214551 | 76 | 88 | 1.0 | 6.0 | 0.00 | 0.00 | 0.00 | 45 | 1004.9 |
| 20260902214451 | 76 | 49 | 1.0 | 6.0 | 0.00 | 0.00 | 0.00 | 44 | 1005.0 |
| 20260902214350 | 76 | 23 | 1.0 | 6.0 | 0.00 | 0.00 | 0.00 | 44 | 1005.0 |
| 20260902214249 | 76 | 9 | 1.0 | 6.0 | 0.00 | 0.00 | 0.00 | 44 | 1005.0 |
| 20260902214215 | 76 | 34 | 1.0 | 6.0 | 0.00 | 0.00 | 0.00 | 44 | 1005.0 |
| 20260902214138 | 76 | 53 | 1.0 | 6.0 | 0.00 | 0.00 | 0.00 | 44 | 1004.9 |
| 20260902214118 | 76 | 49 | 1.0 | 6.0 | 0.00 | 0.00 | 0.00 | 44 | 1005.0 |
| 20260902213746 | 76 | 83 | 2.0 | 6.0 | 0.00 | 0.00 | 0.00 | 43 | 1005.0 |
| 20260902213647 | 76 | 79 | 2.0 | 4.0 | 0.00 | 0.00 | 0.00 | 45 | 1005.0 |
| 20260902213545 | 76 | 352 | 2.0 | 4.0 | 0.00 | 0.00 | 0.00 | 44 | 1005.0 |
| 20260902213445 | 76 | 69 | 1.0 | 4.0 | 0.00 | 0.00 | 0.00 | 44 | 1005.0 |
| 20260902213344 | 76 | 70 | 1.0 | 4.0 | 0.00 | 0.00 | 0.00 | 43 | 1005.0 |
| 20260902213245 | 76 | 89 | 2.0 | 4.0 | 0.00 | 0.00 | 0.00 | 44 | 1005.0 |
| 20260902213144 | 76 | 85 | 2.0 | 4.0 | 0.00 | 0.00 | 0.00 | 43 | 1005.0 |
| 20260902213039 | 76 | 91 | 2.0 | 4.0 | 0.00 | 0.00 | 0.00 | 43 | 1005.0 |
| 20260902212938 | 76 | 71 | 2.0 | 5.0 | 0.00 | 0.00 | 0.00 | 43 | 1005.0 |
| 20260902212838 | 76 | 70 | 2.0 | 5.0 | 0.00 | 0.00 | 0.00 | 43 | 1005.0 |
| 20260902212736 | 76 | 102 | 2.0 | 5.0 | 0.00 | 0.00 | 0.00 | 44 | 1005.0 |
| 20260902212636 | 76 | 175 | 1.0 | 5.0 | 0.00 | 0.00 | 0.00 | 44 | 1005.0 |
| 20260902212536 | 76 | 90 | 1.0 | 5.0 | 0.00 | 0.00 | 0.00 | 44 | 1005.0 |
| 20260902212434 | 76 | 23 | 1.0 | 5.0 | 0.00 | 0.00 | 0.00 | 44 | 1005.0 |
| 20260902212335 | 76 | 55 | 2.0 | 5.0 | 0.00 | 0.00 | 0.00 | 45 | 1005.0 |
| 20260902212300 | 76 | 72 | 2.0 | 5.0 | 0.00 | 0.00 | 0.00 | 45 | 1005.0 |
| 20260902212237 | 76 | 92 | 2.0 | 5.0 | 0.00 | 0.00 | 0.00 | 43 | 1005.0 |
| 20260902212202 | 76 | 13 | 2.0 | 6.0 | 0.00 | 0.00 | 0.00 | 43 | 1005.0 |
| 20260902211831 | 76 | 352 | 1.0 | 6.0 | 0.00 | 0.00 | 0.00 | 44 | 1005.0 |
| 20260902211729 | 76 | 107 | 1.0 | 6.0 | 0.00 | 0.00 | 0.00 | 43 | 1005.0 |
| 20260902211630 | 76 | 125 | 2.0 | 6.0 | 0.00 | 0.00 | 0.00 | 43 | 1005.0 |
| 20260902211529 | 76 | 15 | 3.0 | 6.0 | 0.00 | 0.00 | 0.00 | 42 | 1005.0 |
| 20260902211429 | 76 | 98 | 2.0 | 6.0 | 0.00 | 0.00 | 0.00 | 42 | 1005.0 |
| 20260902211329 | 76 | 76 | 2.0 | 6.0 | 0.00 | 0.00 | 0.00 | 43 | 1005.0 |
| 20260902211229 | 76 | 98 | 2.0 | 6.0 | 0.00 | 0.00 | 0.00 | 43 | 1005.0 |
| 20260902211130 | 76 | 111 | 2.0 | 7.0 | 0.00 | 0.00 | 0.00 | 43 | 1005.0 |
| 20260902211029 | 76 | 124 | 3.0 | 7.0 | 0.00 | 0.00 | 0.00 | 43 | 1005.0 |
| 20260902210945 | 76 | 51 | 2.0 | 7.0 | 0.00 | 0.00 | 0.00 | 42 | 1005.0 |
| 20260902210922 | 76 | 66 | 1.0 | 7.0 | 0.00 | 0.00 | 0.00 | 41 | 1005.0 |
| 20260902210903 | 76 | 53 | 1.0 | 7.0 | 0.00 | 0.00 | 0.00 | 43 | 1005.0 |
| 20260902210529 | 76 | 11 | 1.0 | 7.0 | 0.00 | 0.00 | 0.00 | 42 | 1005.0 |
| 20260902210430 | 77 | 98 | 3.0 | 7.0 | 0.00 | 0.00 | 0.00 | 41 | 1005.0 |
| 20260902210328 | 77 | 109 | 4.0 | 7.0 | 0.00 | 0.00 | 0.00 | 41 | 1005.0 |
| 20260902210229 | 77 | 78 | 3.0 | 7.0 | 0.00 | 0.00 | 0.00 | 41 | 1005.0 |
| 20260902210130 | 77 | 85 | 2.0 | 6.0 | 0.00 | 0.00 | 0.00 | 42 | 1005.0 |
| 20260902210031 | 77 | 44 | 1.0 | 5.0 | 0.00 | 0.00 | 0.00 | 44 | 1005.0 |
| 20260902210005 | 77 | 65 | 1.0 | 5.0 | 0.00 | 0.00 | 0.00 | 42 | 1005.0 |
| 20260902205942 | 77 | 32 | 2.0 | 5.0 | 0.00 | 0.00 | 0.00 | 41 | 1005.1 |
| 20260902205922 | 77 | 335 | 2.0 | 5.0 | 0.00 | 0.00 | 0.00 | 42 | 1005.1 |
| 20260902205859 | 77 | 311 | 2.0 | 5.0 | 0.00 | 0.00 | 0.00 | 42 | 1005.1 |
| 20260902205556 | 77 | 338 | 2.0 | 4.0 | 0.00 | 0.00 | 0.00 | 42 | 1005.1 |
| 20260902205217 | 77 | 351 | 2.0 | 4.0 | 0.00 | 0.00 | 0.00 | 43 | 1005.2 |
| 20260902205114 | 77 | 330 | 2.0 | 4.0 | 0.00 | 0.00 | 0.00 | 43 | 1005.1 |
| 20260902205013 | 77 | 300 | 2.0 | 4.0 | 0.00 | 0.00 | 0.00 | 42 | 1005.1 |
| 20260902204912 | 77 | 299 | 2.0 | 4.0 | 0.00 | 0.00 | 0.00 | 42 | 1005.2 |
| 20260902204811 | 77 | 263 | 2.0 | 4.0 | 0.00 | 0.00 | 0.00 | 42 | 1005.1 |
| 20260902204710 | 77 | 317 | 2.0 | 4.0 | 0.00 | 0.00 | 0.00 | 41 | 1005.1 |
| 20260902204614 | 77 | 310 | 2.0 | 4.0 | 0.00 | 0.00 | 0.00 | 42 | 1005.2 |
| 20260902204508 | 77 | 302 | 2.0 | 4.0 | 0.00 | 0.00 | 0.00 | 42 | 1005.2 |
| 20260902204407 | 77 | 292 | 2.0 | 4.0 | 0.00 | 0.00 | 0.00 | 43 | 1005.2 |
| 20260902204307 | 76 | 337 | 1.0 | 4.0 | 0.00 | 0.00 | 0.00 | 43 | 1005.3 |
| 20260902204206 | 76 | 314 | 1.0 | 4.0 | 0.00 | 0.00 | 0.00 | 42 | 1005.3 |
| 20260902204111 | 76 | 263 | 2.0 | 4.0 | 0.00 | 0.00 | 0.00 | 41 | 1005.4 |
| 20260902204024 | 76 | 211 | 2.0 | 4.0 | 0.00 | 0.00 | 0.00 | 41 | 1005.4 |
| 20260902204005 | 76 | 159 | 2.0 | 4.0 | 0.00 | 0.00 | 0.00 | 44 | 1005.4 |
| 20260902203939 | 76 | 288 | 1.0 | 4.0 | 0.00 | 0.00 | 0.00 | 43 | 1005.4 |
| 20260902203919 | 76 | 332 | 1.0 | 4.0 | 0.00 | 0.00 | 0.00 | 42 | 1005.4 |
| 20260902203856 | 76 | 196 | 2.0 | 4.0 | 0.00 | 0.00 | 0.00 | 41 | 1005.4 |
| 20260902203821 | 76 | 192 | 2.0 | 4.0 | 0.00 | 0.00 | 0.00 | 41 | 1005.4 |
| 20260902203534 | 76 | 266 | 1.0 | 3.0 | 0.00 | 0.00 | 0.00 | 43 | 1005.4 |
| 20260902203513 | 76 | 314 | 1.0 | 4.0 | 0.00 | 0.00 | 0.00 | 42 | 1005.4 |
| 20260902202915 | 76 | 323 | 0.0 | 4.0 | 0.00 | 0.00 | 0.00 | 41 | 1005.5 |
| 20260902202853 | 76 | 300 | 1.0 | 5.0 | 0.00 | 0.00 | 0.00 | 43 | 1005.5 |
| 20260902202833 | 76 | 180 | 1.0 | 5.0 | 0.00 | 0.00 | 0.00 | 42 | 1005.5 |
| 20260902202456 | 76 | 126 | 2.0 | 5.0 | 0.00 | 0.00 | 0.00 | 42 | 1005.5 |
| 20260902202402 | 76 | 137 | 3.0 | 5.0 | 0.00 | 0.00 | 0.00 | 42 | 1005.5 |
| 20260902202344 | 76 | 241 | 3.0 | 5.0 | 0.00 | 0.00 | 0.00 | 42 | 1005.5 |
| 20260902202322 | 76 | 261 | 2.0 | 5.0 | 0.00 | 0.00 | 0.00 | 42 | 1005.5 |
| 20260902202301 | 76 | 263 | 2.0 | 5.0 | 0.00 | 0.00 | 0.00 | 44 | 1005.6 |
| 20260902202227 | 76 | 196 | 2.0 | 5.0 | 0.00 | 0.00 | 0.00 | 44 | 1005.6 |
| 20260902202203 | 76 | 195 | 2.0 | 5.0 | 0.00 | 0.00 | 0.00 | 42 | 1005.6 |
| 20260902202142 | 76 | 113 | 2.0 | 5.0 | 0.00 | 0.00 | 0.00 | 43 | 1005.6 |
| 20260902201849 | 75 | 187 | 3.0 | 5.0 | 0.00 | 0.00 | 0.00 | 42 | 1005.6 |
| 20260902201241 | 75 | 174 | 1.0 | 2.0 | 0.00 | 0.00 | 0.00 | 43 | 1005.7 |
| 20260902201139 | 75 | 352 | 1.0 | 3.0 | 0.00 | 0.00 | 0.00 | 44 | 1005.7 |
| 20260902201050 | 75 | 338 | 1.0 | 3.0 | 0.00 | 0.00 | 0.00 | 44 | 1005.7 |
| 20260902200937 | 75 | 338 | 1.0 | 3.0 | 0.00 | 0.00 | 0.00 | 43 | 1005.7 |
| 20260902200836 | 75 | 352 | 2.0 | 3.0 | 0.00 | 0.00 | 0.00 | 42 | 1005.7 |
| 20260902200738 | 75 | 352 | 1.0 | 6.0 | 0.00 | 0.00 | 0.00 | 43 | 1005.7 |
| 20260902200635 | 75 | 340 | 1.0 | 6.0 | 0.00 | 0.00 | 0.00 | 43 | 1005.7 |
| 20260902200548 | 75 | 265 | 1.0 | 7.0 | 0.00 | 0.00 | 0.00 | 42 | 1005.8 |
| 20260902200435 | 75 | 263 | 2.0 | 7.0 | 0.00 | 0.00 | 0.00 | 42 | 1005.8 |
| 20260902200333 | 75 | 268 | 2.0 | 9.0 | 0.00 | 0.00 | 0.00 | 42 | 1005.8 |
| 20260902200234 | 76 | 273 | 1.0 | 9.0 | 0.00 | 0.00 | 0.00 | 42 | 1005.8 |
| 20260902200132 | 76 | 232 | 1.0 | 9.0 | 0.00 | 0.00 | 0.00 | 43 | 1005.9 |
| 20260902200044 | 76 | 227 | 2.0 | 9.0 | 0.00 | 0.00 | 0.00 | 42 | 1005.9 |
| 20260902195929 | 76 | 263 | 2.0 | 9.0 | 0.00 | 0.00 | 0.00 | 43 | 1005.9 |
| 20260902195831 | 76 | 257 | 3.0 | 9.0 | 0.00 | 0.00 | 0.00 | 42 | 1005.9 |
| 20260902195730 | 76 | 239 | 3.0 | 9.0 | 0.00 | 0.00 | 0.00 | 43 | 1005.9 |
| 20260902195631 | 76 | 251 | 3.0 | 9.0 | 0.00 | 0.00 | 0.00 | 43 | 1005.9 |
| 20260902195543 | 76 | 153 | 3.0 | 9.0 | 0.00 | 0.00 | 0.00 | 43 | 1005.9 |
| 20260902195445 | 76 | 280 | 1.0 | 9.0 | 0.00 | 0.00 | 0.00 | 42 | 1005.9 |
| 20260902195419 | 76 | 337 | 2.0 | 4.0 | 0.00 | 0.00 | 0.00 | 43 | 1005.9 |
| 20260902195400 | 76 | 260 | 2.0 | 4.0 | 0.00 | 0.00 | 0.00 | 42 | 1005.9 |
| 20260902195042 | 76 | 283 | 1.0 | 4.0 | 0.00 | 0.00 | 0.00 | 42 | 1005.9 |
| 20260902194930 | 76 | 161 | 2.0 | 4.0 | 0.00 | 0.00 | 0.00 | 43 | 1005.9 |
| 20260902194831 | 76 | 208 | 1.0 | 4.0 | 0.00 | 0.00 | 0.00 | 43 | 1006.0 |
| 20260902194729 | 76 | 304 | 1.0 | 4.0 | 0.00 | 0.00 | 0.00 | 43 | 1006.0 |
| 20260902194630 | 76 | 161 | 1.0 | 4.0 | 0.00 | 0.00 | 0.00 | 44 | 1006.0 |
| 20260902194537 | 76 | 338 | 1.0 | 7.0 | 0.00 | 0.00 | 0.00 | 44 | 1006.1 |
| 20260902194429 | 75 | 173 | 0.0 | 8.0 | 0.00 | 0.00 | 0.00 | 43 | 1006.1 |
| 20260902194329 | 75 | 198 | 0.0 | 8.0 | 0.00 | 0.00 | 0.00 | 42 | 1006.1 |
| 20260902194228 | 75 | 123 | 1.0 | 8.0 | 0.00 | 0.00 | 0.00 | 43 | 1006.1 |
| 20260902194126 | 75 | 81 | 1.0 | 9.0 | 0.00 | 0.00 | 0.00 | 44 | 1006.1 |
| 20260902194033 | 75 | 51 | 1.0 | 9.0 | 0.00 | 0.00 | 0.00 | 43 | 1006.1 |
| 20260902193924 | 75 | 81 | 2.0 | 9.0 | 0.00 | 0.00 | 0.00 | 43 | 1006.1 |
| 20260902193847 | 75 | 279 | 2.0 | 9.0 | 0.00 | 0.00 | 0.00 | 43 | 1006.2 |
| 20260902193825 | 75 | 253 | 4.0 | 9.0 | 0.00 | 0.00 | 0.00 | 44 | 1006.2 |
| 20260902193802 | 75 | 323 | 4.0 | 9.0 | 0.00 | 0.00 | 0.00 | 43 | 1006.2 |
| 20260902193444 | 76 | 251 | 4.0 | 9.0 | 0.00 | 0.00 | 0.00 | 42 | 1006.3 |
| 20260902193420 | 76 | 283 | 5.0 | 9.0 | 0.00 | 0.00 | 0.00 | 45 | 1006.4 |
| 20260902193400 | 76 | 277 | 4.0 | 9.0 | 0.00 | 0.00 | 0.00 | 43 | 1006.4 |
| 20260902193108 | 76 | 269 | 2.0 | 8.0 | 0.00 | 0.00 | 0.00 | 43 | 1006.5 |
| 20260902193033 | 76 | 215 | 2.0 | 9.0 | 0.00 | 0.00 | 0.00 | 45 | 1006.5 |
| 20260902193013 | 76 | 269 | 2.0 | 9.0 | 0.00 | 0.00 | 0.00 | 43 | 1006.5 |
| 20260902192719 | 76 | 271 | 3.0 | 9.0 | 0.00 | 0.00 | 0.00 | 42 | 1006.6 |
| 20260902192658 | 76 | 294 | 3.0 | 9.0 | 0.00 | 0.00 | 0.00 | 44 | 1006.6 |
| 20260902192315 | 76 | 158 | 3.0 | 9.0 | 0.00 | 0.00 | 0.00 | 44 | 1006.6 |
| 20260902192241 | 76 | 187 | 3.0 | 9.0 | 0.00 | 0.00 | 0.00 | 43 | 1006.5 |
| 20260902192217 | 76 | 169 | 4.0 | 9.0 | 0.00 | 0.00 | 0.00 | 44 | 1006.6 |
| 20260902192159 | 75 | 190 | 4.0 | 9.0 | 0.00 | 0.00 | 0.00 | 43 | 1006.6 |
| 20260902191813 | 75 | 190 | 2.0 | 9.0 | 0.00 | 0.00 | 0.00 | 43 | 1006.6 |
| 20260902191738 | 75 | 211 | 2.0 | 10.0 | 0.00 | 0.00 | 0.00 | 44 | 1006.7 |
| 20260902191715 | 75 | 261 | 2.0 | 10.0 | 0.00 | 0.00 | 0.00 | 44 | 1006.6 |
| 20260902191655 | 75 | 101 | 2.0 | 10.0 | 0.00 | 0.00 | 0.00 | 42 | 1006.6 |
| 20260902191333 | 75 | 126 | 4.0 | 10.0 | 0.00 | 0.00 | 0.00 | 43 | 1006.7 |
| 20260902191311 | 75 | 100 | 5.0 | 10.0 | 0.00 | 0.00 | 0.00 | 43 | 1006.8 |
| 20260902191249 | 75 | 234 | 4.0 | 10.0 | 0.00 | 0.00 | 0.00 | 44 | 1006.8 |
| 20260902190944 | 75 | 120 | 5.0 | 10.0 | 0.00 | 0.00 | 0.00 | 45 | 1006.8 |
| 20260902190925 | 75 | 281 | 3.0 | 10.0 | 0.00 | 0.00 | 0.00 | 44 | 1006.7 |
| 20260902190904 | 75 | 167 | 3.0 | 8.0 | 0.00 | 0.00 | 0.00 | 46 | 1006.8 |
| 20260902190609 | 75 | 228 | 3.0 | 9.0 | 0.00 | 0.00 | 0.00 | 44 | 1006.8 |
| 20260902190534 | 75 | 186 | 2.0 | 9.0 | 0.00 | 0.00 | 0.00 | 43 | 1006.8 |
| 20260902190203 | 75 | 278 | 2.0 | 10.0 | 0.00 | 0.00 | 0.00 | 44 | 1006.8 |
| 20260902190101 | 74 | 270 | 3.0 | 10.0 | 0.00 | 0.00 | 0.00 | 45 | 1006.9 |
| 20260902190009 | 74 | 240 | 4.0 | 10.0 | 0.00 | 0.00 | 0.00 | 45 | 1006.8 |
| 20260902185904 | 74 | 156 | 4.0 | 10.0 | 0.00 | 0.00 | 0.00 | 45 | 1006.8 |
| 20260902185822 | 74 | 121 | 4.0 | 10.0 | 0.00 | 0.00 | 0.00 | 43 | 1006.8 |
| 20260902185801 | 74 | 171 | 3.0 | 10.0 | 0.00 | 0.00 | 0.00 | 44 | 1006.9 |
| 20260902185737 | 74 | 163 | 3.0 | 10.0 | 0.00 | 0.00 | 0.00 | 45 | 1006.9 |
| 20260902185714 | 74 | 192 | 4.0 | 12.0 | 0.00 | 0.00 | 0.00 | 44 | 1006.9 |
| 20260902185640 | 74 | 217 | 4.0 | 13.0 | 0.00 | 0.00 | 0.00 | 44 | 1006.8 |
| 20260902185349 | 74 | 271 | 4.0 | 13.0 | 0.00 | 0.00 | 0.00 | 44 | 1006.8 |
| 20260902185327 | 74 | 222 | 4.0 | 13.0 | 0.00 | 0.00 | 0.00 | 44 | 1006.8 |
| 20260902185307 | 74 | 231 | 2.0 | 13.0 | 0.00 | 0.00 | 0.00 | 44 | 1006.8 |
| 20260902185230 | 74 | 215 | 2.0 | 13.0 | 0.00 | 0.00 | 0.00 | 45 | 1006.9 |
| 20260902185210 | 74 | 267 | 5.0 | 13.0 | 0.00 | 0.00 | 0.00 | 46 | 1006.9 |
| 20260902184920 | 74 | 160 | 6.0 | 13.0 | 0.00 | 0.00 | 0.00 | 45 | 1006.9 |
| 20260902184856 | 74 | 150 | 4.0 | 13.0 | 0.00 | 0.00 | 0.00 | 44 | 1006.9 |
| 20260902184824 | 74 | 150 | 3.0 | 11.0 | 0.00 | 0.00 | 0.00 | 45 | 1006.9 |
| 20260902184304 | 74 | 153 | 4.0 | 10.0 | 0.00 | 0.00 | 0.00 | 47 | 1007.0 |
| 20260902184244 | 74 | 171 | 4.0 | 10.0 | 0.00 | 0.00 | 0.00 | 47 | 1007.0 |
| 20260902183938 | 74 | 211 | 4.0 | 10.0 | 0.00 | 0.00 | 0.00 | 47 | 1006.9 |